Multibeam Report for EX1708


Ship Name: Okeanos Explorer
Chief Scientist: Cantwell, Kasey
NOAA/OAR/OER
Source Organization: NOAA Office of Ocean Exploration and Research (OER)
Start Date: 2017-09-06
End Date: 2017-09-30


View ISO Metadata

Visit the full NCEI Bathymetry Viewer


Multibeam Bathymetry

Cruise Details

Project: Deep-Sea Symphony: Exploring the Musicians Seamounts
Instrument: Kongsberg EM302

Data Quality

Number of Files: 1005
Number of Records: 352279
BATHYMETRY DATA Quantity Percentage
Number of Beams 152184528 100%
Number of Good Beams 137065823 90.07%
Number of Zero Beams 2793 0.0%
Number of Flagged Beams 15115912 9.93%

Navigation Totals

Total Time: 610.3213 hours
Total Track Length: 10617.0224 km
Average Speed: 17.396 km/hr (9.3931 knots)

Cruise Bounds

Northern Extent: 33.279617
Southern Extent: 20.960012
Western Extent: -165.21645
Eastern Extent: -157.744

Limits

Minimum Sonar Depth 0 Maximum Sonar Depth 5.625
Minimum Altitude 0.94 Maximum Altitude 6800.0752
Minimum Depth 212.9506 Maximum Depth 6989.6553

File Information

Full Resolution Bathymetry as collected (raw): 482

Files File Size Description
0000_20170906_224610_EX1708_MB.all.mb58.gz 25.96MB Kongsberg multibeam vendor format
0001_20170906_225641_EX1708_MB.all.mb58.gz 110.94MB Kongsberg multibeam vendor format
0002_20170906_234709_EX1708_MB.all.mb58.gz 56.61MB Kongsberg multibeam vendor format
0003_20170907_002614_EX1708_MB.all.mb58.gz 56.17MB Kongsberg multibeam vendor format
0004_20170907_010635_EX1708_MB.all.mb58.gz 46.08MB Kongsberg multibeam vendor format
0005_20170907_014024_EX1708_MB.all.mb58.gz 137.17MB Kongsberg multibeam vendor format
0006_20170907_024026_EX1708_MB.all.mb58.gz 111.37MB Kongsberg multibeam vendor format
0007_20170907_034029_EX1708_MB.all.mb58.gz 37.54MB Kongsberg multibeam vendor format
0008_20170907_040852_EX1708_MB.all.mb58.gz 66.87MB Kongsberg multibeam vendor format
0009_20170907_050858_EX1708_MB.all.mb58.gz 38.01MB Kongsberg multibeam vendor format
0010_20170907_054336_EX1708_MB.all.mb58.gz 41.40MB Kongsberg multibeam vendor format
0011_20170907_062116_EX1708_MB.all.mb58.gz 34.63MB Kongsberg multibeam vendor format
0012_20170907_065237_EX1708_MB.all.mb58.gz 66.19MB Kongsberg multibeam vendor format
0013_20170907_075234_EX1708_MB.all.mb58.gz 66.43MB Kongsberg multibeam vendor format
0014_20170907_085238_EX1708_MB.all.mb58.gz 39.95MB Kongsberg multibeam vendor format
0015_20170907_092843_EX1708_MB.all.mb58.gz 66.12MB Kongsberg multibeam vendor format
0016_20170907_102834_EX1708_MB.all.mb58.gz 57.57MB Kongsberg multibeam vendor format
0017_20170907_112043_EX1708_MB.all.mb58.gz 24.80MB Kongsberg multibeam vendor format
0018_20170907_114252_EX1708_MB.all.mb58.gz 68.74MB Kongsberg multibeam vendor format
0019_20170907_123429_EX1708_MB.all.mb58.gz 2.53MB Kongsberg multibeam vendor format
0020_20170907_123644_EX1708_MB.all.mb58.gz 15.83MB Kongsberg multibeam vendor format
0021_20170907_125105_EX1708_MB.all.mb58.gz 1.46MB Kongsberg multibeam vendor format
0022_20170907_125223_EX1708_MB.all.mb58.gz 42.08MB Kongsberg multibeam vendor format
0023_20170907_133012_EX1708_MB.all.mb58.gz 25.78MB Kongsberg multibeam vendor format
0024_20170907_135009_EX1708_MB.all.mb58.gz 8.35MB Kongsberg multibeam vendor format
0025_20170907_135740_EX1708_MB.all.mb58.gz 4.13MB Kongsberg multibeam vendor format
0026_20170907_140126_EX1708_MB.all.mb58.gz 26.64MB Kongsberg multibeam vendor format
0027_20170907_142544_EX1708_MB.all.mb58.gz 2.04MB Kongsberg multibeam vendor format
0028_20170907_142734_EX1708_MB.all.mb58.gz 43.31MB Kongsberg multibeam vendor format
0029_20170907_150631_EX1708_MB.all.mb58.gz 21.14MB Kongsberg multibeam vendor format
0030_20170907_152526_EX1708_MB.all.mb58.gz 6.81MB Kongsberg multibeam vendor format
0031_20170907_153130_EX1708_MB.all.mb58.gz 28.33MB Kongsberg multibeam vendor format
0032_20170908_015523_EX1708_MB.all.mb58.gz 66.59MB Kongsberg multibeam vendor format
0033_20170908_025519_EX1708_MB.all.mb58.gz 66.38MB Kongsberg multibeam vendor format
0034_20170908_035518_EX1708_MB.all.mb58.gz 65.91MB Kongsberg multibeam vendor format
0035_20170908_045522_EX1708_MB.all.mb58.gz 66.42MB Kongsberg multibeam vendor format
0036_20170908_055518_EX1708_MB.all.mb58.gz 66.38MB Kongsberg multibeam vendor format
0037_20170908_065520_EX1708_MB.all.mb58.gz 66.37MB Kongsberg multibeam vendor format
0038_20170908_075521_EX1708_MB.all.mb58.gz 66.88MB Kongsberg multibeam vendor format
0039_20170908_085525_EX1708_MB.all.mb58.gz 66.62MB Kongsberg multibeam vendor format
0040_20170908_095526_EX1708_MB.all.mb58.gz 65.90MB Kongsberg multibeam vendor format
0041_20170908_105527_EX1708_MB.all.mb58.gz 48.76MB Kongsberg multibeam vendor format
0042_20170908_113939_EX1708_MB.all.mb58.gz 66.38MB Kongsberg multibeam vendor format
0043_20170908_123943_EX1708_MB.all.mb58.gz 37.15MB Kongsberg multibeam vendor format
0044_20170908_131321_EX1708_MB.all.mb58.gz 61.49MB Kongsberg multibeam vendor format
0045_20170908_140902_EX1708_MB.all.mb58.gz 35.91MB Kongsberg multibeam vendor format
0046_20170908_144136_EX1708_MB.all.mb58.gz 12.78MB Kongsberg multibeam vendor format
0047_20170908_145310_EX1708_MB.all.mb58.gz 41.98MB Kongsberg multibeam vendor format
0048_20170908_153104_EX1708_MB.all.mb58.gz 13.91MB Kongsberg multibeam vendor format
0049_20170908_154339_EX1708_MB.all.mb58.gz 39.96MB Kongsberg multibeam vendor format
0050_20170908_161940_EX1708_MB.all.mb58.gz 16.65MB Kongsberg multibeam vendor format
0051_20170908_163443_EX1708_MB.all.mb58.gz 13.87MB Kongsberg multibeam vendor format
0052_20170909_032006_EX1708_MB.all.mb58.gz 65.60MB Kongsberg multibeam vendor format
0053_20170909_042006_EX1708_MB.all.mb58.gz 65.49MB Kongsberg multibeam vendor format
0054_20170909_052011_EX1708_MB.all.mb58.gz 24.28MB Kongsberg multibeam vendor format
0055_20170909_054225_EX1708_MB.all.mb58.gz 65.54MB Kongsberg multibeam vendor format
0056_20170909_064221_EX1708_MB.all.mb58.gz 62.61MB Kongsberg multibeam vendor format
0057_20170909_074000_EX1708_MB.all.mb58.gz 65.22MB Kongsberg multibeam vendor format
0058_20170909_083958_EX1708_MB.all.mb58.gz 17.79MB Kongsberg multibeam vendor format
0059_20170909_085614_EX1708_MB.all.mb58.gz 3.60MB Kongsberg multibeam vendor format
0060_20170909_085930_EX1708_MB.all.mb58.gz 65.77MB Kongsberg multibeam vendor format
0061_20170909_095929_EX1708_MB.all.mb58.gz 64.53MB Kongsberg multibeam vendor format
0062_20170909_105819_EX1708_MB.all.mb58.gz 3.13MB Kongsberg multibeam vendor format
0063_20170909_110109_EX1708_MB.all.mb58.gz 16.41MB Kongsberg multibeam vendor format
0064_20170909_111553_EX1708_MB.all.mb58.gz 2.11MB Kongsberg multibeam vendor format
0065_20170909_111746_EX1708_MB.all.mb58.gz 67.61MB Kongsberg multibeam vendor format
0066_20170909_121738_EX1708_MB.all.mb58.gz 67.19MB Kongsberg multibeam vendor format
0067_20170909_131710_EX1708_MB.all.mb58.gz 3.67MB Kongsberg multibeam vendor format
0068_20170909_132026_EX1708_MB.all.mb58.gz 12.66MB Kongsberg multibeam vendor format
0069_20170909_133139_EX1708_MB.all.mb58.gz 2.87MB Kongsberg multibeam vendor format
0070_20170909_133413_EX1708_MB.all.mb58.gz 66.04MB Kongsberg multibeam vendor format
0071_20170909_143411_EX1708_MB.all.mb58.gz 37.58MB Kongsberg multibeam vendor format
0072_20170909_150827_EX1708_MB.all.mb58.gz 4.10MB Kongsberg multibeam vendor format
0073_20170909_151209_EX1708_MB.all.mb58.gz 52.59MB Kongsberg multibeam vendor format
0074_20170910_030851_EX1708_MB.all.mb58.gz 66.52MB Kongsberg multibeam vendor format
0075_20170910_040858_EX1708_MB.all.mb58.gz 5.72MB Kongsberg multibeam vendor format
0076_20170910_041404_EX1708_MB.all.mb58.gz 36.35MB Kongsberg multibeam vendor format
0077_20170910_044654_EX1708_MB.all.mb58.gz 65.21MB Kongsberg multibeam vendor format
0078_20170910_054649_EX1708_MB.all.mb58.gz 65.35MB Kongsberg multibeam vendor format
0079_20170910_064653_EX1708_MB.all.mb58.gz 59.20MB Kongsberg multibeam vendor format
0080_20170910_074114_EX1708_MB.all.mb58.gz 38.83MB Kongsberg multibeam vendor format
0081_20170910_081621_EX1708_MB.all.mb58.gz 15.12MB Kongsberg multibeam vendor format
0082_20170910_082822_EX1708_MB.all.mb58.gz 35.43MB Kongsberg multibeam vendor format
0083_20170910_090054_EX1708_MB.all.mb58.gz 65.74MB Kongsberg multibeam vendor format
0084_20170910_100042_EX1708_MB.all.mb58.gz 45.50MB Kongsberg multibeam vendor format
0085_20170910_104200_EX1708_MB.all.mb58.gz 3.40MB Kongsberg multibeam vendor format
0086_20170910_104505_EX1708_MB.all.mb58.gz 34.04MB Kongsberg multibeam vendor format
0087_20170910_111539_EX1708_MB.all.mb58.gz 5.22MB Kongsberg multibeam vendor format
0088_20170910_111944_EX1708_MB.all.mb58.gz 69.06MB Kongsberg multibeam vendor format
0089_20170910_121937_EX1708_MB.all.mb58.gz 65.73MB Kongsberg multibeam vendor format
0090_20170910_131939_EX1708_MB.all.mb58.gz 40.45MB Kongsberg multibeam vendor format
0091_20170910_135640_EX1708_MB.all.mb58.gz 3.11MB Kongsberg multibeam vendor format
0092_20170910_135929_EX1708_MB.all.mb58.gz 4.50MB Kongsberg multibeam vendor format
0093_20170910_140336_EX1708_MB.all.mb58.gz 65.91MB Kongsberg multibeam vendor format
0094_20170910_150340_EX1708_MB.all.mb58.gz 27.50MB Kongsberg multibeam vendor format
0095_20170910_152846_EX1708_MB.all.mb58.gz 2.32MB Kongsberg multibeam vendor format
0096_20170910_153053_EX1708_MB.all.mb58.gz 16.31MB Kongsberg multibeam vendor format
0097_20170910_154528_EX1708_MB.all.mb58.gz 19.70MB Kongsberg multibeam vendor format
0098_20170911_052738_EX1708_MB.all.mb58.gz 16.37MB Kongsberg multibeam vendor format
0099_20170911_054001_EX1708_MB.all.mb58.gz 53.98MB Kongsberg multibeam vendor format
0100_20170911_062156_EX1708_MB.all.mb58.gz 23.85MB Kongsberg multibeam vendor format
0101_20170911_064336_EX1708_MB.all.mb58.gz 31.75MB Kongsberg multibeam vendor format
0102_20170911_071242_EX1708_MB.all.mb58.gz 39.95MB Kongsberg multibeam vendor format
0103_20170911_074914_EX1708_MB.all.mb58.gz 44.37MB Kongsberg multibeam vendor format
0104_20170911_082917_EX1708_MB.all.mb58.gz 65.53MB Kongsberg multibeam vendor format
0105_20170911_092926_EX1708_MB.all.mb58.gz 40.83MB Kongsberg multibeam vendor format
0106_20170911_100656_EX1708_MB.all.mb58.gz 48.04MB Kongsberg multibeam vendor format
0107_20170911_105058_EX1708_MB.all.mb58.gz 3.38MB Kongsberg multibeam vendor format
0108_20170911_105402_EX1708_MB.all.mb58.gz 33.59MB Kongsberg multibeam vendor format
0109_20170911_112428_EX1708_MB.all.mb58.gz 17.90MB Kongsberg multibeam vendor format
0110_20170911_113835_EX1708_MB.all.mb58.gz 68.43MB Kongsberg multibeam vendor format
0111_20170911_123253_EX1708_MB.all.mb58.gz 65.75MB Kongsberg multibeam vendor format
0112_20170911_133250_EX1708_MB.all.mb58.gz 3.27MB Kongsberg multibeam vendor format
0113_20170911_133550_EX1708_MB.all.mb58.gz 2.70MB Kongsberg multibeam vendor format
0114_20170911_133818_EX1708_MB.all.mb58.gz 65.29MB Kongsberg multibeam vendor format
0115_20170911_143815_EX1708_MB.all.mb58.gz 27.52MB Kongsberg multibeam vendor format
0116_20170911_150322_EX1708_MB.all.mb58.gz 32.66MB Kongsberg multibeam vendor format
0117_20170911_153307_EX1708_MB.all.mb58.gz 2.68MB Kongsberg multibeam vendor format
0118_20170911_153532_EX1708_MB.all.mb58.gz 27.81MB Kongsberg multibeam vendor format
0119_20170912_033233_EX1708_MB.all.mb58.gz 28.90MB Kongsberg multibeam vendor format
0120_20170912_035811_EX1708_MB.all.mb58.gz 27.90MB Kongsberg multibeam vendor format
0121_20170912_042328_EX1708_MB.all.mb58.gz 6.97MB Kongsberg multibeam vendor format
0122_20170912_042945_EX1708_MB.all.mb58.gz 66.80MB Kongsberg multibeam vendor format
0123_20170912_052950_EX1708_MB.all.mb58.gz 64.94MB Kongsberg multibeam vendor format
0124_20170912_062953_EX1708_MB.all.mb58.gz 65.22MB Kongsberg multibeam vendor format
0125_20170912_072947_EX1708_MB.all.mb58.gz 65.20MB Kongsberg multibeam vendor format
0126_20170912_082944_EX1708_MB.all.mb58.gz 36.76MB Kongsberg multibeam vendor format
0127_20170912_090332_EX1708_MB.all.mb58.gz 2.61MB Kongsberg multibeam vendor format
0128_20170912_090555_EX1708_MB.all.mb58.gz 58.19MB Kongsberg multibeam vendor format
0129_20170912_100008_EX1708_MB.all.mb58.gz 18.03MB Kongsberg multibeam vendor format
0131_20170912_101642_EX1708_MB.all.mb58.gz 54.94MB Kongsberg multibeam vendor format
0132_20170912_110638_EX1708_MB.all.mb58.gz 64.54MB Kongsberg multibeam vendor format
0133_20170912_120627_EX1708_MB.all.mb58.gz 17.52MB Kongsberg multibeam vendor format
0134_20170912_122239_EX1708_MB.all.mb58.gz 66.93MB Kongsberg multibeam vendor format
0135_20170912_132236_EX1708_MB.all.mb58.gz 46.38MB Kongsberg multibeam vendor format
0136_20170912_140538_EX1708_MB.all.mb58.gz 27.05MB Kongsberg multibeam vendor format
0137_20170912_143023_EX1708_MB.all.mb58.gz 52.04MB Kongsberg multibeam vendor format
0138_20170912_151744_EX1708_MB.all.mb58.gz 2.06MB Kongsberg multibeam vendor format
0139_20170912_151926_EX1708_MB.all.mb58.gz 43.20MB Kongsberg multibeam vendor format
0140_20170912_191416_EX1708_MB.all.mb58.gz 65.00MB Kongsberg multibeam vendor format
0141_20170912_201004_EX1708_MB.all.mb58.gz 58.54MB Kongsberg multibeam vendor format
0142_20170912_210332_EX1708_MB.all.mb58.gz 3.53MB Kongsberg multibeam vendor format
0143_20170912_210644_EX1708_MB.all.mb58.gz 66.76MB Kongsberg multibeam vendor format
0144_20170912_220647_EX1708_MB.all.mb58.gz 31.00MB Kongsberg multibeam vendor format
0145_20170912_223427_EX1708_MB.all.mb58.gz 1.72MB Kongsberg multibeam vendor format
0146_20170912_223558_EX1708_MB.all.mb58.gz 65.00MB Kongsberg multibeam vendor format
0147_20170912_233551_EX1708_MB.all.mb58.gz 15.57MB Kongsberg multibeam vendor format
0148_20170912_234936_EX1708_MB.all.mb58.gz 12.18MB Kongsberg multibeam vendor format
0149_20170913_000003_EX1708_MB.all.mb58.gz 64.33MB Kongsberg multibeam vendor format
0150_20170913_010006_EX1708_MB.all.mb58.gz 63.39MB Kongsberg multibeam vendor format
0151_20170913_020002_EX1708_MB.all.mb58.gz 66.11MB Kongsberg multibeam vendor format
0152_20170913_030001_EX1708_MB.all.mb58.gz 25.66MB Kongsberg multibeam vendor format
0153_20170913_032316_EX1708_MB.all.mb58.gz 63.51MB Kongsberg multibeam vendor format
0154_20170913_042315_EX1708_MB.all.mb58.gz 62.13MB Kongsberg multibeam vendor format
0155_20170913_052312_EX1708_MB.all.mb58.gz 62.76MB Kongsberg multibeam vendor format
0156_20170913_062307_EX1708_MB.all.mb58.gz 64.02MB Kongsberg multibeam vendor format
0157_20170913_072311_EX1708_MB.all.mb58.gz 64.95MB Kongsberg multibeam vendor format
0158_20170913_082311_EX1708_MB.all.mb58.gz 10.51MB Kongsberg multibeam vendor format
0159_20170913_083252_EX1708_MB.all.mb58.gz 55.32MB Kongsberg multibeam vendor format
0160_20170913_092335_EX1708_MB.all.mb58.gz 65.30MB Kongsberg multibeam vendor format
0161_20170913_102337_EX1708_MB.all.mb58.gz 63.37MB Kongsberg multibeam vendor format
0162_20170913_112334_EX1708_MB.all.mb58.gz 2.45MB Kongsberg multibeam vendor format
0163_20170913_112549_EX1708_MB.all.mb58.gz 48.75MB Kongsberg multibeam vendor format
0164_20170913_121038_EX1708_MB.all.mb58.gz 2.68MB Kongsberg multibeam vendor format
0165_20170913_121305_EX1708_MB.all.mb58.gz 55.07MB Kongsberg multibeam vendor format
0166_20170913_130327_EX1708_MB.all.mb58.gz 1.37MB Kongsberg multibeam vendor format
0167_20170913_130442_EX1708_MB.all.mb58.gz 58.23MB Kongsberg multibeam vendor format
0168_20170913_135801_EX1708_MB.all.mb58.gz 15.04MB Kongsberg multibeam vendor format
0169_20170913_141141_EX1708_MB.all.mb58.gz 16.37MB Kongsberg multibeam vendor format
0170_20170913_142639_EX1708_MB.all.mb58.gz 38.80MB Kongsberg multibeam vendor format
0171_20170913_150204_EX1708_MB.all.mb58.gz 2.28MB Kongsberg multibeam vendor format
0172_20170913_150407_EX1708_MB.all.mb58.gz 72.54MB Kongsberg multibeam vendor format
0174_20170914_052302_EX1708_MB.all.mb58.gz 50.15MB Kongsberg multibeam vendor format
0175_20170914_060827_EX1708_MB.all.mb58.gz 39.95MB Kongsberg multibeam vendor format
0176_20170914_064510_EX1708_MB.all.mb58.gz 50.06MB Kongsberg multibeam vendor format
0177_20170914_073054_EX1708_MB.all.mb58.gz 65.09MB Kongsberg multibeam vendor format
0178_20170914_083054_EX1708_MB.all.mb58.gz 64.92MB Kongsberg multibeam vendor format
0179_20170914_093048_EX1708_MB.all.mb58.gz 65.77MB Kongsberg multibeam vendor format
0180_20170914_103056_EX1708_MB.all.mb58.gz 4.29MB Kongsberg multibeam vendor format
0181_20170914_103449_EX1708_MB.all.mb58.gz 68.37MB Kongsberg multibeam vendor format
0182_20170914_113445_EX1708_MB.all.mb58.gz 8.97MB Kongsberg multibeam vendor format
0183_20170914_114254_EX1708_MB.all.mb58.gz 65.13MB Kongsberg multibeam vendor format
0184_20170914_124252_EX1708_MB.all.mb58.gz 65.26MB Kongsberg multibeam vendor format
0185_20170914_134251_EX1708_MB.all.mb58.gz 64.30MB Kongsberg multibeam vendor format
0186_20170914_143845_EX1708_MB.all.mb58.gz 78.06MB Kongsberg multibeam vendor format
0187_20170914_153853_EX1708_MB.all.mb58.gz 24.61MB Kongsberg multibeam vendor format
0188_20170915_035740_EX1708_MB.all.mb58.gz 66.39MB Kongsberg multibeam vendor format
0189_20170915_045742_EX1708_MB.all.mb58.gz 65.71MB Kongsberg multibeam vendor format
0190_20170915_055735_EX1708_MB.all.mb58.gz 66.04MB Kongsberg multibeam vendor format
0191_20170915_065743_EX1708_MB.all.mb58.gz 21.71MB Kongsberg multibeam vendor format
0192_20170915_071735_EX1708_MB.all.mb58.gz 65.37MB Kongsberg multibeam vendor format
0193_20170915_081738_EX1708_MB.all.mb58.gz 64.85MB Kongsberg multibeam vendor format
0194_20170915_091731_EX1708_MB.all.mb58.gz 65.81MB Kongsberg multibeam vendor format
0195_20170915_101733_EX1708_MB.all.mb58.gz 65.49MB Kongsberg multibeam vendor format
0196_20170915_111731_EX1708_MB.all.mb58.gz 0.89MB Kongsberg multibeam vendor format
0197_20170915_111819_EX1708_MB.all.mb58.gz 25.93MB Kongsberg multibeam vendor format
0198_20170915_114200_EX1708_MB.all.mb58.gz 60.77MB Kongsberg multibeam vendor format
0199_20170915_123801_EX1708_MB.all.mb58.gz 64.97MB Kongsberg multibeam vendor format
0200_20170915_133757_EX1708_MB.all.mb58.gz 58.71MB Kongsberg multibeam vendor format
0201_20170915_143214_EX1708_MB.all.mb58.gz 2.72MB Kongsberg multibeam vendor format
0202_20170915_143443_EX1708_MB.all.mb58.gz 64.32MB Kongsberg multibeam vendor format
0203_20170915_153356_EX1708_MB.all.mb58.gz 24.19MB Kongsberg multibeam vendor format
0204_20170916_033004_EX1708_MB.all.mb58.gz 65.35MB Kongsberg multibeam vendor format
0205_20170916_043002_EX1708_MB.all.mb58.gz 64.88MB Kongsberg multibeam vendor format
0206_20170916_053005_EX1708_MB.all.mb58.gz 64.80MB Kongsberg multibeam vendor format
0207_20170916_063001_EX1708_MB.all.mb58.gz 65.25MB Kongsberg multibeam vendor format
0208_20170916_072959_EX1708_MB.all.mb58.gz 65.07MB Kongsberg multibeam vendor format
0209_20170916_082959_EX1708_MB.all.mb58.gz 65.09MB Kongsberg multibeam vendor format
0210_20170916_093004_EX1708_MB.all.mb58.gz 64.86MB Kongsberg multibeam vendor format
0211_20170916_102957_EX1708_MB.all.mb58.gz 65.25MB Kongsberg multibeam vendor format
0212_20170916_113005_EX1708_MB.all.mb58.gz 23.03MB Kongsberg multibeam vendor format
0213_20170916_115100_EX1708_MB.all.mb58.gz 2.68MB Kongsberg multibeam vendor format
0214_20170916_115324_EX1708_MB.all.mb58.gz 66.92MB Kongsberg multibeam vendor format
0215_20170916_125315_EX1708_MB.all.mb58.gz 10.35MB Kongsberg multibeam vendor format
0216_20170916_130235_EX1708_MB.all.mb58.gz 12.19MB Kongsberg multibeam vendor format
0217_20170916_131338_EX1708_MB.all.mb58.gz 66.48MB Kongsberg multibeam vendor format
0218_20170916_141321_EX1708_MB.all.mb58.gz 14.12MB Kongsberg multibeam vendor format
0219_20170916_142559_EX1708_MB.all.mb58.gz 2.09MB Kongsberg multibeam vendor format
0220_20170916_142751_EX1708_MB.all.mb58.gz 11.73MB Kongsberg multibeam vendor format
0221_20170916_143828_EX1708_MB.all.mb58.gz 2.67MB Kongsberg multibeam vendor format
0222_20170916_144052_EX1708_MB.all.mb58.gz 52.65MB Kongsberg multibeam vendor format
0223_20170916_152845_EX1708_MB.all.mb58.gz 37.24MB Kongsberg multibeam vendor format
0224_20170917_045131_EX1708_MB.all.mb58.gz 66.52MB Kongsberg multibeam vendor format
0225_20170917_055135_EX1708_MB.all.mb58.gz 64.72MB Kongsberg multibeam vendor format
0226_20170917_065133_EX1708_MB.all.mb58.gz 22.90MB Kongsberg multibeam vendor format
0227_20170917_071243_EX1708_MB.all.mb58.gz 2.71MB Kongsberg multibeam vendor format
0228_20170917_071512_EX1708_MB.all.mb58.gz 65.51MB Kongsberg multibeam vendor format
0229_20170917_081520_EX1708_MB.all.mb58.gz 64.95MB Kongsberg multibeam vendor format
0230_20170917_091518_EX1708_MB.all.mb58.gz 64.88MB Kongsberg multibeam vendor format
0231_20170917_101520_EX1708_MB.all.mb58.gz 64.94MB Kongsberg multibeam vendor format
0232_20170917_111519_EX1708_MB.all.mb58.gz 24.87MB Kongsberg multibeam vendor format
0233_20170917_113813_EX1708_MB.all.mb58.gz 69.33MB Kongsberg multibeam vendor format
0234_20170917_123814_EX1708_MB.all.mb58.gz 4.87MB Kongsberg multibeam vendor format
0235_20170917_124242_EX1708_MB.all.mb58.gz 2.33MB Kongsberg multibeam vendor format
0236_20170917_124450_EX1708_MB.all.mb58.gz 65.05MB Kongsberg multibeam vendor format
0237_20170917_134457_EX1708_MB.all.mb58.gz 64.78MB Kongsberg multibeam vendor format
0238_20170917_144452_EX1708_MB.all.mb58.gz 12.92MB Kongsberg multibeam vendor format
0239_20170917_145645_EX1708_MB.all.mb58.gz 3.34MB Kongsberg multibeam vendor format
0240_20170917_145947_EX1708_MB.all.mb58.gz 72.03MB Kongsberg multibeam vendor format
0242_20170918_025047_EX1708_MB.all.mb58.gz 27.51MB Kongsberg multibeam vendor format
0243_20170918_031552_EX1708_MB.all.mb58.gz 67.32MB Kongsberg multibeam vendor format
0244_20170918_041409_EX1708_MB.all.mb58.gz 10.93MB Kongsberg multibeam vendor format
0245_20170918_042412_EX1708_MB.all.mb58.gz 3.50MB Kongsberg multibeam vendor format
0246_20170918_042726_EX1708_MB.all.mb58.gz 64.79MB Kongsberg multibeam vendor format
0247_20170918_052719_EX1708_MB.all.mb58.gz 63.48MB Kongsberg multibeam vendor format
0248_20170918_062603_EX1708_MB.all.mb58.gz 66.47MB Kongsberg multibeam vendor format
0249_20170918_072607_EX1708_MB.all.mb58.gz 30.27MB Kongsberg multibeam vendor format
0250_20170918_075116_EX1708_MB.all.mb58.gz 3.68MB Kongsberg multibeam vendor format
0251_20170918_075440_EX1708_MB.all.mb58.gz 64.61MB Kongsberg multibeam vendor format
0252_20170918_085437_EX1708_MB.all.mb58.gz 26.97MB Kongsberg multibeam vendor format
0253_20170918_091941_EX1708_MB.all.mb58.gz 64.32MB Kongsberg multibeam vendor format
0254_20170918_101929_EX1708_MB.all.mb58.gz 64.62MB Kongsberg multibeam vendor format
0255_20170918_111930_EX1708_MB.all.mb58.gz 64.72MB Kongsberg multibeam vendor format
0256_20170918_121940_EX1708_MB.all.mb58.gz 64.99MB Kongsberg multibeam vendor format
0257_20170918_131930_EX1708_MB.all.mb58.gz 47.21MB Kongsberg multibeam vendor format
0258_20170918_140253_EX1708_MB.all.mb58.gz 4.23MB Kongsberg multibeam vendor format
0259_20170918_140646_EX1708_MB.all.mb58.gz 65.61MB Kongsberg multibeam vendor format
0260_20170918_150646_EX1708_MB.all.mb58.gz 1.98MB Kongsberg multibeam vendor format
0261_20170918_150834_EX1708_MB.all.mb58.gz 25.61MB Kongsberg multibeam vendor format
0262_20170918_153155_EX1708_MB.all.mb58.gz 3.08MB Kongsberg multibeam vendor format
0263_20170918_153442_EX1708_MB.all.mb58.gz 21.72MB Kongsberg multibeam vendor format
0264_20170919_025228_EX1708_MB.all.mb58.gz 71.10MB Kongsberg multibeam vendor format
0265_20170919_035223_EX1708_MB.all.mb58.gz 65.12MB Kongsberg multibeam vendor format
0266_20170919_045222_EX1708_MB.all.mb58.gz 64.63MB Kongsberg multibeam vendor format
0267_20170919_055223_EX1708_MB.all.mb58.gz 64.18MB Kongsberg multibeam vendor format
0268_20170919_065223_EX1708_MB.all.mb58.gz 64.74MB Kongsberg multibeam vendor format
0269_20170919_075225_EX1708_MB.all.mb58.gz 65.48MB Kongsberg multibeam vendor format
0270_20170919_085230_EX1708_MB.all.mb58.gz 76.93MB Kongsberg multibeam vendor format
0271_20170919_095226_EX1708_MB.all.mb58.gz 67.08MB Kongsberg multibeam vendor format
0272_20170919_105231_EX1708_MB.all.mb58.gz 65.47MB Kongsberg multibeam vendor format
0273_20170919_115230_EX1708_MB.all.mb58.gz 65.08MB Kongsberg multibeam vendor format
0274_20170919_125232_EX1708_MB.all.mb58.gz 66.60MB Kongsberg multibeam vendor format
0275_20170919_135229_EX1708_MB.all.mb58.gz 65.91MB Kongsberg multibeam vendor format
0276_20170919_145228_EX1708_MB.all.mb58.gz 65.84MB Kongsberg multibeam vendor format
0277_20170919_155222_EX1708_MB.all.mb58.gz 16.64MB Kongsberg multibeam vendor format
0278_20170919_160734_EX1708_MB.all.mb58.gz 42.75MB Kongsberg multibeam vendor format
0279_20170919_164609_EX1708_MB.all.mb58.gz 17.74MB Kongsberg multibeam vendor format
0280_20170920_045143_EX1708_MB.all.mb58.gz 16.94MB Kongsberg multibeam vendor format
0281_20170920_050356_EX1708_MB.all.mb58.gz 14.81MB Kongsberg multibeam vendor format
0282_20170920_051447_EX1708_MB.all.mb58.gz 35.56MB Kongsberg multibeam vendor format
0283_20170920_054648_EX1708_MB.all.mb58.gz 65.41MB Kongsberg multibeam vendor format
0284_20170920_064648_EX1708_MB.all.mb58.gz 65.27MB Kongsberg multibeam vendor format
0285_20170920_074641_EX1708_MB.all.mb58.gz 66.80MB Kongsberg multibeam vendor format
0286_20170920_084642_EX1708_MB.all.mb58.gz 4.52MB Kongsberg multibeam vendor format
0287_20170920_085048_EX1708_MB.all.mb58.gz 3.32MB Kongsberg multibeam vendor format
0288_20170920_085348_EX1708_MB.all.mb58.gz 65.72MB Kongsberg multibeam vendor format
0289_20170920_095346_EX1708_MB.all.mb58.gz 65.84MB Kongsberg multibeam vendor format
0290_20170920_105344_EX1708_MB.all.mb58.gz 5.80MB Kongsberg multibeam vendor format
0291_20170920_105902_EX1708_MB.all.mb58.gz 28.24MB Kongsberg multibeam vendor format
0292_20170920_112456_EX1708_MB.all.mb58.gz 65.76MB Kongsberg multibeam vendor format
0293_20170920_122457_EX1708_MB.all.mb58.gz 65.49MB Kongsberg multibeam vendor format
0294_20170920_132450_EX1708_MB.all.mb58.gz 20.65MB Kongsberg multibeam vendor format
0295_20170920_134344_EX1708_MB.all.mb58.gz 25.43MB Kongsberg multibeam vendor format
0296_20170920_140700_EX1708_MB.all.mb58.gz 28.11MB Kongsberg multibeam vendor format
0297_20170920_143244_EX1708_MB.all.mb58.gz 65.84MB Kongsberg multibeam vendor format
0298_20170920_153247_EX1708_MB.all.mb58.gz 24.22MB Kongsberg multibeam vendor format
0299_20170921_040542_EX1708_MB.all.mb58.gz 65.57MB Kongsberg multibeam vendor format
0300_20170921_050542_EX1708_MB.all.mb58.gz 17.93MB Kongsberg multibeam vendor format
0301_20170921_052214_EX1708_MB.all.mb58.gz 65.12MB Kongsberg multibeam vendor format
0302_20170921_062211_EX1708_MB.all.mb58.gz 24.75MB Kongsberg multibeam vendor format
0303_20170921_064504_EX1708_MB.all.mb58.gz 21.21MB Kongsberg multibeam vendor format
0304_20170921_070441_EX1708_MB.all.mb58.gz 65.02MB Kongsberg multibeam vendor format
0305_20170921_080437_EX1708_MB.all.mb58.gz 65.16MB Kongsberg multibeam vendor format
0306_20170921_090442_EX1708_MB.all.mb58.gz 7.33MB Kongsberg multibeam vendor format
0307_20170921_091127_EX1708_MB.all.mb58.gz 21.22MB Kongsberg multibeam vendor format
0308_20170921_093059_EX1708_MB.all.mb58.gz 65.06MB Kongsberg multibeam vendor format
0309_20170921_103059_EX1708_MB.all.mb58.gz 64.70MB Kongsberg multibeam vendor format
0310_20170921_113042_EX1708_MB.all.mb58.gz 20.38MB Kongsberg multibeam vendor format
0311_20170921_114932_EX1708_MB.all.mb58.gz 64.93MB Kongsberg multibeam vendor format
0312_20170921_124925_EX1708_MB.all.mb58.gz 65.14MB Kongsberg multibeam vendor format
0313_20170921_134930_EX1708_MB.all.mb58.gz 41.72MB Kongsberg multibeam vendor format
0314_20170921_142800_EX1708_MB.all.mb58.gz 3.51MB Kongsberg multibeam vendor format
0315_20170921_143114_EX1708_MB.all.mb58.gz 52.53MB Kongsberg multibeam vendor format
0316_20170921_151942_EX1708_MB.all.mb58.gz 46.06MB Kongsberg multibeam vendor format
0317_20170922_050609_EX1708_MB.all.mb58.gz 38.58MB Kongsberg multibeam vendor format
0318_20170922_054131_EX1708_MB.all.mb58.gz 41.58MB Kongsberg multibeam vendor format
0319_20170922_061928_EX1708_MB.all.mb58.gz 31.31MB Kongsberg multibeam vendor format
0320_20170922_064820_EX1708_MB.all.mb58.gz 64.96MB Kongsberg multibeam vendor format
0321_20170922_074818_EX1708_MB.all.mb58.gz 65.49MB Kongsberg multibeam vendor format
0322_20170922_084824_EX1708_MB.all.mb58.gz 65.23MB Kongsberg multibeam vendor format
0323_20170922_094823_EX1708_MB.all.mb58.gz 65.33MB Kongsberg multibeam vendor format
0324_20170922_104823_EX1708_MB.all.mb58.gz 13.25MB Kongsberg multibeam vendor format
0325_20170922_110025_EX1708_MB.all.mb58.gz 38.12MB Kongsberg multibeam vendor format
0326_20170922_113504_EX1708_MB.all.mb58.gz 1.97MB Kongsberg multibeam vendor format
0327_20170922_113651_EX1708_MB.all.mb58.gz 65.87MB Kongsberg multibeam vendor format
0328_20170922_123653_EX1708_MB.all.mb58.gz 54.58MB Kongsberg multibeam vendor format
0329_20170922_132458_EX1708_MB.all.mb58.gz 66.68MB Kongsberg multibeam vendor format
0330_20170922_142456_EX1708_MB.all.mb58.gz 6.75MB Kongsberg multibeam vendor format
0331_20170922_143103_EX1708_MB.all.mb58.gz 3.84MB Kongsberg multibeam vendor format
0332_20170922_143433_EX1708_MB.all.mb58.gz 48.51MB Kongsberg multibeam vendor format
0333_20170922_151840_EX1708_MB.all.mb58.gz 2.36MB Kongsberg multibeam vendor format
0334_20170922_152047_EX1708_MB.all.mb58.gz 43.96MB Kongsberg multibeam vendor format
0335_20170923_043234_EX1708_MB.all.mb58.gz 20.21MB Kongsberg multibeam vendor format
0336_20170923_045028_EX1708_MB.all.mb58.gz 66.53MB Kongsberg multibeam vendor format
0337_20170923_055028_EX1708_MB.all.mb58.gz 65.45MB Kongsberg multibeam vendor format
0338_20170923_065026_EX1708_MB.all.mb58.gz 65.67MB Kongsberg multibeam vendor format
0339_20170923_075031_EX1708_MB.all.mb58.gz 57.36MB Kongsberg multibeam vendor format
0340_20170923_084259_EX1708_MB.all.mb58.gz 18.72MB Kongsberg multibeam vendor format
0341_20170923_090013_EX1708_MB.all.mb58.gz 66.63MB Kongsberg multibeam vendor format
0342_20170923_100015_EX1708_MB.all.mb58.gz 206.0KB Kongsberg multibeam vendor format
0343_20170923_100025_EX1708_MB.all.mb58.gz 66.13MB Kongsberg multibeam vendor format
0344_20170923_110029_EX1708_MB.all.mb58.gz 66.31MB Kongsberg multibeam vendor format
0345_20170923_120024_EX1708_MB.all.mb58.gz 11.72MB Kongsberg multibeam vendor format
0346_20170923_121102_EX1708_MB.all.mb58.gz 17.86MB Kongsberg multibeam vendor format
0347_20170923_122717_EX1708_MB.all.mb58.gz 66.97MB Kongsberg multibeam vendor format
0348_20170923_132723_EX1708_MB.all.mb58.gz 53.60MB Kongsberg multibeam vendor format
0349_20170923_141550_EX1708_MB.all.mb58.gz 2.40MB Kongsberg multibeam vendor format
0350_20170923_141759_EX1708_MB.all.mb58.gz 55.82MB Kongsberg multibeam vendor format
0351_20170923_150854_EX1708_MB.all.mb58.gz 2.06MB Kongsberg multibeam vendor format
0352_20170923_151046_EX1708_MB.all.mb58.gz 46.63MB Kongsberg multibeam vendor format
0353_20170924_050436_EX1708_MB.all.mb58.gz 11.23MB Kongsberg multibeam vendor format
0354_20170924_051306_EX1708_MB.all.mb58.gz 69.23MB Kongsberg multibeam vendor format
0355_20170924_061305_EX1708_MB.all.mb58.gz 65.53MB Kongsberg multibeam vendor format
0356_20170924_071303_EX1708_MB.all.mb58.gz 65.60MB Kongsberg multibeam vendor format
0357_20170924_081310_EX1708_MB.all.mb58.gz 66.09MB Kongsberg multibeam vendor format
0358_20170924_091304_EX1708_MB.all.mb58.gz 48.78MB Kongsberg multibeam vendor format
0359_20170924_095712_EX1708_MB.all.mb58.gz 66.74MB Kongsberg multibeam vendor format
0360_20170924_105710_EX1708_MB.all.mb58.gz 6.12MB Kongsberg multibeam vendor format
0361_20170924_110241_EX1708_MB.all.mb58.gz 23.61MB Kongsberg multibeam vendor format
0362_20170924_112357_EX1708_MB.all.mb58.gz 66.64MB Kongsberg multibeam vendor format
0363_20170924_121941_EX1708_MB.all.mb58.gz 21.68MB Kongsberg multibeam vendor format
0364_20170924_123559_EX1708_MB.all.mb58.gz 77.93MB Kongsberg multibeam vendor format
0365_20170924_133602_EX1708_MB.all.mb58.gz 4.68MB Kongsberg multibeam vendor format
0366_20170924_134014_EX1708_MB.all.mb58.gz 25.98MB Kongsberg multibeam vendor format
0367_20170924_140342_EX1708_MB.all.mb58.gz 65.75MB Kongsberg multibeam vendor format
0368_20170924_150341_EX1708_MB.all.mb58.gz 15.75MB Kongsberg multibeam vendor format
0369_20170924_151755_EX1708_MB.all.mb58.gz 48.18MB Kongsberg multibeam vendor format
0370_20170925_030949_EX1708_MB.all.mb58.gz 77.06MB Kongsberg multibeam vendor format
0371_20170925_040957_EX1708_MB.all.mb58.gz 66.23MB Kongsberg multibeam vendor format
0372_20170925_050955_EX1708_MB.all.mb58.gz 65.81MB Kongsberg multibeam vendor format
0373_20170925_060954_EX1708_MB.all.mb58.gz 65.84MB Kongsberg multibeam vendor format
0374_20170925_070951_EX1708_MB.all.mb58.gz 65.63MB Kongsberg multibeam vendor format
0375_20170925_080951_EX1708_MB.all.mb58.gz 65.51MB Kongsberg multibeam vendor format
0376_20170925_090949_EX1708_MB.all.mb58.gz 65.59MB Kongsberg multibeam vendor format
0377_20170925_100950_EX1708_MB.all.mb58.gz 65.86MB Kongsberg multibeam vendor format
0378_20170925_110957_EX1708_MB.all.mb58.gz 12.38MB Kongsberg multibeam vendor format
0379_20170925_112109_EX1708_MB.all.mb58.gz 76.83MB Kongsberg multibeam vendor format
0380_20170925_122106_EX1708_MB.all.mb58.gz 11.69MB Kongsberg multibeam vendor format
0381_20170925_122941_EX1708_MB.all.mb58.gz 20.15MB Kongsberg multibeam vendor format
0382_20170925_124427_EX1708_MB.all.mb58.gz 77.40MB Kongsberg multibeam vendor format
0383_20170925_134424_EX1708_MB.all.mb58.gz 10.56MB Kongsberg multibeam vendor format
0384_20170925_135356_EX1708_MB.all.mb58.gz 32.63MB Kongsberg multibeam vendor format
0385_20170925_142331_EX1708_MB.all.mb58.gz 50.29MB Kongsberg multibeam vendor format
0386_20170925_150902_EX1708_MB.all.mb58.gz 26.61MB Kongsberg multibeam vendor format
0387_20170925_153006_EX1708_MB.all.mb58.gz 3.48MB Kongsberg multibeam vendor format
0388_20170925_153251_EX1708_MB.all.mb58.gz 31.20MB Kongsberg multibeam vendor format
0389_20170926_015209_EX1708_MB.all.mb58.gz 70.03MB Kongsberg multibeam vendor format
0390_20170926_025213_EX1708_MB.all.mb58.gz 65.76MB Kongsberg multibeam vendor format
0391_20170926_035208_EX1708_MB.all.mb58.gz 66.61MB Kongsberg multibeam vendor format
0392_20170926_045209_EX1708_MB.all.mb58.gz 66.68MB Kongsberg multibeam vendor format
0393_20170926_055212_EX1708_MB.all.mb58.gz 66.33MB Kongsberg multibeam vendor format
0394_20170926_065214_EX1708_MB.all.mb58.gz 66.18MB Kongsberg multibeam vendor format
0395_20170926_075205_EX1708_MB.all.mb58.gz 66.64MB Kongsberg multibeam vendor format
0396_20170926_085208_EX1708_MB.all.mb58.gz 66.61MB Kongsberg multibeam vendor format
0397_20170926_095214_EX1708_MB.all.mb58.gz 66.22MB Kongsberg multibeam vendor format
0398_20170926_105205_EX1708_MB.all.mb58.gz 66.49MB Kongsberg multibeam vendor format
0399_20170926_115207_EX1708_MB.all.mb58.gz 66.52MB Kongsberg multibeam vendor format
0400_20170926_125206_EX1708_MB.all.mb58.gz 43.17MB Kongsberg multibeam vendor format
0401_20170926_133102_EX1708_MB.all.mb58.gz 66.64MB Kongsberg multibeam vendor format
0402_20170926_143100_EX1708_MB.all.mb58.gz 57.59MB Kongsberg multibeam vendor format
0403_20170926_152215_EX1708_MB.all.mb58.gz 62.78MB Kongsberg multibeam vendor format
0404_20170927_063907_EX1708_MB.all.mb58.gz 25.55MB Kongsberg multibeam vendor format
0405_20170927_065154_EX1708_MB.all.mb58.gz 78.00MB Kongsberg multibeam vendor format
0406_20170927_075200_EX1708_MB.all.mb58.gz 66.16MB Kongsberg multibeam vendor format
0407_20170927_085155_EX1708_MB.all.mb58.gz 66.00MB Kongsberg multibeam vendor format
0408_20170927_095159_EX1708_MB.all.mb58.gz 65.72MB Kongsberg multibeam vendor format
0409_20170927_105157_EX1708_MB.all.mb58.gz 23.60MB Kongsberg multibeam vendor format
0410_20170927_111325_EX1708_MB.all.mb58.gz 69.43MB Kongsberg multibeam vendor format
0411_20170927_121322_EX1708_MB.all.mb58.gz 58.14MB Kongsberg multibeam vendor format
0412_20170927_125559_EX1708_MB.all.mb58.gz 3.50MB Kongsberg multibeam vendor format
0413_20170927_125829_EX1708_MB.all.mb58.gz 93.63MB Kongsberg multibeam vendor format
0414_20170927_135826_EX1708_MB.all.mb58.gz 123.25MB Kongsberg multibeam vendor format
0415_20170927_145830_EX1708_MB.all.mb58.gz 43.16MB Kongsberg multibeam vendor format
0416_20170927_153056_EX1708_MB.all.mb58.gz 5.08MB Kongsberg multibeam vendor format
0417_20170927_153448_EX1708_MB.all.mb58.gz 78.96MB Kongsberg multibeam vendor format
0418_20170927_163446_EX1708_MB.all.mb58.gz 79.56MB Kongsberg multibeam vendor format
0419_20170927_173446_EX1708_MB.all.mb58.gz 77.44MB Kongsberg multibeam vendor format
0420_20170927_183445_EX1708_MB.all.mb58.gz 66.68MB Kongsberg multibeam vendor format
0421_20170927_193445_EX1708_MB.all.mb58.gz 66.26MB Kongsberg multibeam vendor format
0422_20170927_203449_EX1708_MB.all.mb58.gz 66.24MB Kongsberg multibeam vendor format
0423_20170927_213447_EX1708_MB.all.mb58.gz 68.65MB Kongsberg multibeam vendor format
0424_20170927_223447_EX1708_MB.all.mb58.gz 78.90MB Kongsberg multibeam vendor format
0425_20170927_233447_EX1708_MB.all.mb58.gz 79.06MB Kongsberg multibeam vendor format
0426_20170928_003442_EX1708_MB.all.mb58.gz 16.16MB Kongsberg multibeam vendor format
0427_20170928_045831_EX1708_MB.all.mb58.gz 82.60MB Kongsberg multibeam vendor format
0428_20170928_055829_EX1708_MB.all.mb58.gz 84.34MB Kongsberg multibeam vendor format
0429_20170928_065831_EX1708_MB.all.mb58.gz 67.56MB Kongsberg multibeam vendor format
0430_20170928_072415_EX1708_MB.all.mb58.gz 143.76MB Kongsberg multibeam vendor format
0431_20170928_082416_EX1708_MB.all.mb58.gz 16.17MB Kongsberg multibeam vendor format
0432_20170928_083157_EX1708_MB.all.mb58.gz 24.74MB Kongsberg multibeam vendor format
0433_20170928_084553_EX1708_MB.all.mb58.gz 139.07MB Kongsberg multibeam vendor format
0434_20170928_094552_EX1708_MB.all.mb58.gz 28.91MB Kongsberg multibeam vendor format
0435_20170928_095646_EX1708_MB.all.mb58.gz 32.43MB Kongsberg multibeam vendor format
0436_20170928_100840_EX1708_MB.all.mb58.gz 143.64MB Kongsberg multibeam vendor format
0437_20170928_110842_EX1708_MB.all.mb58.gz 15.77MB Kongsberg multibeam vendor format
0438_20170928_111606_EX1708_MB.all.mb58.gz 18.20MB Kongsberg multibeam vendor format
0439_20170928_112529_EX1708_MB.all.mb58.gz 139.10MB Kongsberg multibeam vendor format
0440_20170928_122529_EX1708_MB.all.mb58.gz 28.05MB Kongsberg multibeam vendor format
0441_20170928_123616_EX1708_MB.all.mb58.gz 20.11MB Kongsberg multibeam vendor format
0442_20170928_124708_EX1708_MB.all.mb58.gz 26.05MB Kongsberg multibeam vendor format
0443_20170928_130313_EX1708_MB.all.mb58.gz 10.77MB Kongsberg multibeam vendor format
0444_20170928_130949_EX1708_MB.all.mb58.gz 22.14MB Kongsberg multibeam vendor format
0445_20170928_132329_EX1708_MB.all.mb58.gz 3.75MB Kongsberg multibeam vendor format
0446_20170928_132548_EX1708_MB.all.mb58.gz 36.90MB Kongsberg multibeam vendor format
0447_20170928_133828_EX1708_MB.all.mb58.gz 40.66MB Kongsberg multibeam vendor format
0448_20170928_135610_EX1708_MB.all.mb58.gz 88.57MB Kongsberg multibeam vendor format
0449_20170928_145612_EX1708_MB.all.mb58.gz 6.45MB Kongsberg multibeam vendor format
0450_20170928_150022_EX1708_MB.all.mb58.gz 96.95MB Kongsberg multibeam vendor format
0451_20170928_160022_EX1708_MB.all.mb58.gz 10.56MB Kongsberg multibeam vendor format
0452_20170929_044243_EX1708_MB.all.mb58.gz 129.69MB Kongsberg multibeam vendor format
0453_20170929_054242_EX1708_MB.all.mb58.gz 154.61MB Kongsberg multibeam vendor format
0454_20170929_064242_EX1708_MB.all.mb58.gz 86.67MB Kongsberg multibeam vendor format
0455_20170929_071557_EX1708_MB.all.mb58.gz 37.64MB Kongsberg multibeam vendor format
0456_20170929_072942_EX1708_MB.all.mb58.gz 157.33MB Kongsberg multibeam vendor format
0457_20170929_082942_EX1708_MB.all.mb58.gz 67.72MB Kongsberg multibeam vendor format
0458_20170929_085527_EX1708_MB.all.mb58.gz 41.88MB Kongsberg multibeam vendor format
0459_20170929_091127_EX1708_MB.all.mb58.gz 158.71MB Kongsberg multibeam vendor format
0460_20170929_101127_EX1708_MB.all.mb58.gz 57.28MB Kongsberg multibeam vendor format
0461_20170929_103252_EX1708_MB.all.mb58.gz 43.86MB Kongsberg multibeam vendor format
0462_20170929_104832_EX1708_MB.all.mb58.gz 160.20MB Kongsberg multibeam vendor format
0463_20170929_114830_EX1708_MB.all.mb58.gz 43.87MB Kongsberg multibeam vendor format
0464_20170929_120444_EX1708_MB.all.mb58.gz 32.27MB Kongsberg multibeam vendor format
0465_20170929_121753_EX1708_MB.all.mb58.gz 157.86MB Kongsberg multibeam vendor format
0466_20170929_131753_EX1708_MB.all.mb58.gz 59.93MB Kongsberg multibeam vendor format
0467_20170929_133935_EX1708_MB.all.mb58.gz 50.66MB Kongsberg multibeam vendor format
0468_20170929_135734_EX1708_MB.all.mb58.gz 159.88MB Kongsberg multibeam vendor format
0469_20170929_145735_EX1708_MB.all.mb58.gz 17.38MB Kongsberg multibeam vendor format
0470_20170929_150431_EX1708_MB.all.mb58.gz 145.70MB Kongsberg multibeam vendor format
0471_20170930_035326_EX1708_MB.all.mb58.gz 158.01MB Kongsberg multibeam vendor format
0472_20170930_045326_EX1708_MB.all.mb58.gz 20.23MB Kongsberg multibeam vendor format
0473_20170930_050527_EX1708_MB.all.mb58.gz 75.17MB Kongsberg multibeam vendor format
0474_20170930_060531_EX1708_MB.all.mb58.gz 181.7KB Kongsberg multibeam vendor format
0475_20170930_060540_EX1708_MB.all.mb58.gz 30.07MB Kongsberg multibeam vendor format
0476_20170930_063223_EX1708_MB.all.mb58.gz 70.41MB Kongsberg multibeam vendor format
0477_20170930_073224_EX1708_MB.all.mb58.gz 42.88MB Kongsberg multibeam vendor format
0478_20170930_080336_EX1708_MB.all.mb58.gz 40.62MB Kongsberg multibeam vendor format
0479_20170930_082851_EX1708_MB.all.mb58.gz 85.21MB Kongsberg multibeam vendor format
0480_20170930_092857_EX1708_MB.all.mb58.gz 35.88MB Kongsberg multibeam vendor format
0481_20170930_095618_EX1708_MB.all.mb58.gz 25.30MB Kongsberg multibeam vendor format
0482_20170930_101544_EX1708_MB.all.mb58.gz 79.72MB Kongsberg multibeam vendor format
0483_20170930_111538_EX1708_MB.all.mb58.gz 46.22MB Kongsberg multibeam vendor format
0484_20170930_114437_EX1708_MB.all.mb58.gz 47.58MB Kongsberg multibeam vendor format

Full Resolution Bathymetry (processed): 480

Files File Size Description
0000_20170906_224610_EX1708_MB-EM302.gsf.mb121.gz 34.01MB SAIC Generic Sensor Format (GSF)
0001_20170906_225641_EX1708_MB-EM302.gsf.mb121.gz 114.90MB SAIC Generic Sensor Format (GSF)
0002_20170906_234709_EX1708_MB-EM302.gsf.mb121.gz 44.93MB SAIC Generic Sensor Format (GSF)
0003_20170907_002614_EX1708_MB-EM302.gsf.mb121.gz 40.60MB SAIC Generic Sensor Format (GSF)
0004_20170907_010635_EX1708_MB-EM302.gsf.mb121.gz 39.06MB SAIC Generic Sensor Format (GSF)
0005_20170907_014024_EX1708_MB-EM302.gsf.mb121.gz 135.45MB SAIC Generic Sensor Format (GSF)
0006_20170907_024026_EX1708_MB-EM302.gsf.mb121.gz 102.69MB SAIC Generic Sensor Format (GSF)
0007_20170907_034029_EX1708_MB-EM302.gsf.mb121.gz 36.83MB SAIC Generic Sensor Format (GSF)
0008_20170907_040852_EX1708_MB-EM302.gsf.mb121.gz 31.13MB SAIC Generic Sensor Format (GSF)
0009_20170907_050858_EX1708_MB-EM302.gsf.mb121.gz 26.98MB SAIC Generic Sensor Format (GSF)
0010_20170907_054336_EX1708_MB-EM302.gsf.mb121.gz 22.67MB SAIC Generic Sensor Format (GSF)
0011_20170907_062116_EX1708_MB-EM302.gsf.mb121.gz 26.19MB SAIC Generic Sensor Format (GSF)
0012_20170907_065237_EX1708_MB-EM302.gsf.mb121.gz 34.17MB SAIC Generic Sensor Format (GSF)
0013_20170907_075234_EX1708_MB-EM302.gsf.mb121.gz 35.04MB SAIC Generic Sensor Format (GSF)
0014_20170907_085238_EX1708_MB-EM302.gsf.mb121.gz 31.01MB SAIC Generic Sensor Format (GSF)
0015_20170907_092843_EX1708_MB-EM302.gsf.mb121.gz 34.12MB SAIC Generic Sensor Format (GSF)
0016_20170907_102834_EX1708_MB-EM302.gsf.mb121.gz 30.53MB SAIC Generic Sensor Format (GSF)
0017_20170907_112043_EX1708_MB-EM302.gsf.mb121.gz 24.62MB SAIC Generic Sensor Format (GSF)
0018_20170907_114252_EX1708_MB-EM302.gsf.mb121.gz 37.19MB SAIC Generic Sensor Format (GSF)
0019_20170907_123429_EX1708_MB-EM302.gsf.mb121.gz 11.38MB SAIC Generic Sensor Format (GSF)
0020_20170907_123644_EX1708_MB-EM302.gsf.mb121.gz 5.32MB SAIC Generic Sensor Format (GSF)
0021_20170907_125105_EX1708_MB-EM302.gsf.mb121.gz 8.80MB SAIC Generic Sensor Format (GSF)
0022_20170907_125223_EX1708_MB-EM302.gsf.mb121.gz 16.46MB SAIC Generic Sensor Format (GSF)
0023_20170907_133012_EX1708_MB-EM302.gsf.mb121.gz 19.11MB SAIC Generic Sensor Format (GSF)
0024_20170907_135009_EX1708_MB-EM302.gsf.mb121.gz 6.42MB SAIC Generic Sensor Format (GSF)
0025_20170907_135740_EX1708_MB-EM302.gsf.mb121.gz 6.31MB SAIC Generic Sensor Format (GSF)
0026_20170907_140126_EX1708_MB-EM302.gsf.mb121.gz 8.76MB SAIC Generic Sensor Format (GSF)
0027_20170907_142544_EX1708_MB-EM302.gsf.mb121.gz 10.76MB SAIC Generic Sensor Format (GSF)
0028_20170907_142734_EX1708_MB-EM302.gsf.mb121.gz 16.88MB SAIC Generic Sensor Format (GSF)
0029_20170907_150631_EX1708_MB-EM302.gsf.mb121.gz 13.87MB SAIC Generic Sensor Format (GSF)
0030_20170907_152526_EX1708_MB-EM302.gsf.mb121.gz 9.25MB SAIC Generic Sensor Format (GSF)
0031_20170907_153130_EX1708_MB-EM302.gsf.mb121.gz 10.58MB SAIC Generic Sensor Format (GSF)
0032_20170908_015523_EX1708_MB-EM302.gsf.mb121.gz 29.73MB SAIC Generic Sensor Format (GSF)
0033_20170908_025519_EX1708_MB-EM302.gsf.mb121.gz 39.41MB SAIC Generic Sensor Format (GSF)
0034_20170908_035518_EX1708_MB-EM302.gsf.mb121.gz 38.90MB SAIC Generic Sensor Format (GSF)
0035_20170908_045522_EX1708_MB-EM302.gsf.mb121.gz 39.07MB SAIC Generic Sensor Format (GSF)
0036_20170908_055518_EX1708_MB-EM302.gsf.mb121.gz 39.23MB SAIC Generic Sensor Format (GSF)
0037_20170908_065520_EX1708_MB-EM302.gsf.mb121.gz 39.00MB SAIC Generic Sensor Format (GSF)
0038_20170908_075521_EX1708_MB-EM302.gsf.mb121.gz 39.59MB SAIC Generic Sensor Format (GSF)
0039_20170908_085525_EX1708_MB-EM302.gsf.mb121.gz 39.41MB SAIC Generic Sensor Format (GSF)
0040_20170908_095526_EX1708_MB-EM302.gsf.mb121.gz 36.28MB SAIC Generic Sensor Format (GSF)
0041_20170908_105527_EX1708_MB-EM302.gsf.mb121.gz 33.63MB SAIC Generic Sensor Format (GSF)
0042_20170908_113939_EX1708_MB-EM302.gsf.mb121.gz 32.13MB SAIC Generic Sensor Format (GSF)
0043_20170908_123943_EX1708_MB-EM302.gsf.mb121.gz 29.56MB SAIC Generic Sensor Format (GSF)
0044_20170908_131321_EX1708_MB-EM302.gsf.mb121.gz 28.62MB SAIC Generic Sensor Format (GSF)
0045_20170908_140902_EX1708_MB-EM302.gsf.mb121.gz 21.81MB SAIC Generic Sensor Format (GSF)
0046_20170908_144136_EX1708_MB-EM302.gsf.mb121.gz 15.17MB SAIC Generic Sensor Format (GSF)
0047_20170908_145310_EX1708_MB-EM302.gsf.mb121.gz 17.12MB SAIC Generic Sensor Format (GSF)
0048_20170908_153104_EX1708_MB-EM302.gsf.mb121.gz 16.14MB SAIC Generic Sensor Format (GSF)
0049_20170908_154339_EX1708_MB-EM302.gsf.mb121.gz 16.96MB SAIC Generic Sensor Format (GSF)
0050_20170908_161940_EX1708_MB-EM302.gsf.mb121.gz 13.01MB SAIC Generic Sensor Format (GSF)
0051_20170908_163443_EX1708_MB-EM302.gsf.mb121.gz 6.96MB SAIC Generic Sensor Format (GSF)
0052_20170909_032006_EX1708_MB-EM302.gsf.mb121.gz 28.85MB SAIC Generic Sensor Format (GSF)
0053_20170909_042006_EX1708_MB-EM302.gsf.mb121.gz 31.82MB SAIC Generic Sensor Format (GSF)
0054_20170909_052011_EX1708_MB-EM302.gsf.mb121.gz 26.21MB SAIC Generic Sensor Format (GSF)
0055_20170909_054225_EX1708_MB-EM302.gsf.mb121.gz 32.29MB SAIC Generic Sensor Format (GSF)
0056_20170909_064221_EX1708_MB-EM302.gsf.mb121.gz 37.06MB SAIC Generic Sensor Format (GSF)
0057_20170909_074000_EX1708_MB-EM302.gsf.mb121.gz 30.16MB SAIC Generic Sensor Format (GSF)
0058_20170909_083958_EX1708_MB-EM302.gsf.mb121.gz 15.28MB SAIC Generic Sensor Format (GSF)
0059_20170909_085614_EX1708_MB-EM302.gsf.mb121.gz 13.25MB SAIC Generic Sensor Format (GSF)
0060_20170909_085930_EX1708_MB-EM302.gsf.mb121.gz 29.72MB SAIC Generic Sensor Format (GSF)
0061_20170909_095929_EX1708_MB-EM302.gsf.mb121.gz 29.35MB SAIC Generic Sensor Format (GSF)
0062_20170909_105819_EX1708_MB-EM302.gsf.mb121.gz 12.75MB SAIC Generic Sensor Format (GSF)
0063_20170909_110109_EX1708_MB-EM302.gsf.mb121.gz 5.96MB SAIC Generic Sensor Format (GSF)
0064_20170909_111553_EX1708_MB-EM302.gsf.mb121.gz 12.67MB SAIC Generic Sensor Format (GSF)
0065_20170909_111746_EX1708_MB-EM302.gsf.mb121.gz 33.03MB SAIC Generic Sensor Format (GSF)
0066_20170909_121738_EX1708_MB-EM302.gsf.mb121.gz 32.93MB SAIC Generic Sensor Format (GSF)
0067_20170909_131710_EX1708_MB-EM302.gsf.mb121.gz 12.51MB SAIC Generic Sensor Format (GSF)
0068_20170909_132026_EX1708_MB-EM302.gsf.mb121.gz 5.02MB SAIC Generic Sensor Format (GSF)
0069_20170909_133139_EX1708_MB-EM302.gsf.mb121.gz 12.33MB SAIC Generic Sensor Format (GSF)
0070_20170909_133413_EX1708_MB-EM302.gsf.mb121.gz 26.04MB SAIC Generic Sensor Format (GSF)
0071_20170909_143411_EX1708_MB-EM302.gsf.mb121.gz 21.40MB SAIC Generic Sensor Format (GSF)
0072_20170909_150827_EX1708_MB-EM302.gsf.mb121.gz 14.34MB SAIC Generic Sensor Format (GSF)
0073_20170909_151209_EX1708_MB-EM302.gsf.mb121.gz 17.38MB SAIC Generic Sensor Format (GSF)
0074_20170910_030851_EX1708_MB-EM302.gsf.mb121.gz 21.41MB SAIC Generic Sensor Format (GSF)
0075_20170910_040858_EX1708_MB-EM302.gsf.mb121.gz 16.82MB SAIC Generic Sensor Format (GSF)
0076_20170910_041404_EX1708_MB-EM302.gsf.mb121.gz 21.75MB SAIC Generic Sensor Format (GSF)
0077_20170910_044654_EX1708_MB-EM302.gsf.mb121.gz 33.50MB SAIC Generic Sensor Format (GSF)
0078_20170910_054649_EX1708_MB-EM302.gsf.mb121.gz 36.80MB SAIC Generic Sensor Format (GSF)
0079_20170910_064653_EX1708_MB-EM302.gsf.mb121.gz 31.99MB SAIC Generic Sensor Format (GSF)
0080_20170910_074114_EX1708_MB-EM302.gsf.mb121.gz 22.65MB SAIC Generic Sensor Format (GSF)
0081_20170910_081621_EX1708_MB-EM302.gsf.mb121.gz 17.30MB SAIC Generic Sensor Format (GSF)
0082_20170910_082822_EX1708_MB-EM302.gsf.mb121.gz 21.77MB SAIC Generic Sensor Format (GSF)
0083_20170910_090054_EX1708_MB-EM302.gsf.mb121.gz 30.83MB SAIC Generic Sensor Format (GSF)
0084_20170910_100042_EX1708_MB-EM302.gsf.mb121.gz 23.38MB SAIC Generic Sensor Format (GSF)
0085_20170910_104200_EX1708_MB-EM302.gsf.mb121.gz 12.51MB SAIC Generic Sensor Format (GSF)
0086_20170910_104505_EX1708_MB-EM302.gsf.mb121.gz 11.81MB SAIC Generic Sensor Format (GSF)
0087_20170910_111539_EX1708_MB-EM302.gsf.mb121.gz 16.84MB SAIC Generic Sensor Format (GSF)
0088_20170910_111944_EX1708_MB-EM302.gsf.mb121.gz 34.39MB SAIC Generic Sensor Format (GSF)
0089_20170910_121937_EX1708_MB-EM302.gsf.mb121.gz 35.10MB SAIC Generic Sensor Format (GSF)
0090_20170910_131939_EX1708_MB-EM302.gsf.mb121.gz 22.05MB SAIC Generic Sensor Format (GSF)
0091_20170910_135640_EX1708_MB-EM302.gsf.mb121.gz 7.55MB SAIC Generic Sensor Format (GSF)
0092_20170910_135929_EX1708_MB-EM302.gsf.mb121.gz 11.39MB SAIC Generic Sensor Format (GSF)
0093_20170910_140336_EX1708_MB-EM302.gsf.mb121.gz 24.65MB SAIC Generic Sensor Format (GSF)
0094_20170910_150340_EX1708_MB-EM302.gsf.mb121.gz 18.23MB SAIC Generic Sensor Format (GSF)
0095_20170910_152846_EX1708_MB-EM302.gsf.mb121.gz 7.03MB SAIC Generic Sensor Format (GSF)
0096_20170910_153053_EX1708_MB-EM302.gsf.mb121.gz 7.95MB SAIC Generic Sensor Format (GSF)
0097_20170910_154528_EX1708_MB-EM302.gsf.mb121.gz 11.42MB SAIC Generic Sensor Format (GSF)
0098_20170911_052738_EX1708_MB-EM302.gsf.mb121.gz 14.58MB SAIC Generic Sensor Format (GSF)
0099_20170911_054001_EX1708_MB-EM302.gsf.mb121.gz 30.26MB SAIC Generic Sensor Format (GSF)
0100_20170911_062156_EX1708_MB-EM302.gsf.mb121.gz 18.65MB SAIC Generic Sensor Format (GSF)
0101_20170911_064336_EX1708_MB-EM302.gsf.mb121.gz 18.71MB SAIC Generic Sensor Format (GSF)
0102_20170911_071242_EX1708_MB-EM302.gsf.mb121.gz 23.12MB SAIC Generic Sensor Format (GSF)
0103_20170911_074914_EX1708_MB-EM302.gsf.mb121.gz 29.25MB SAIC Generic Sensor Format (GSF)
0104_20170911_082917_EX1708_MB-EM302.gsf.mb121.gz 31.25MB SAIC Generic Sensor Format (GSF)
0105_20170911_092926_EX1708_MB-EM302.gsf.mb121.gz 28.46MB SAIC Generic Sensor Format (GSF)
0106_20170911_100656_EX1708_MB-EM302.gsf.mb121.gz 20.61MB SAIC Generic Sensor Format (GSF)
0107_20170911_105058_EX1708_MB-EM302.gsf.mb121.gz 12.96MB SAIC Generic Sensor Format (GSF)
0108_20170911_105402_EX1708_MB-EM302.gsf.mb121.gz 13.13MB SAIC Generic Sensor Format (GSF)
0109_20170911_112428_EX1708_MB-EM302.gsf.mb121.gz 21.58MB SAIC Generic Sensor Format (GSF)
0110_20170911_113835_EX1708_MB-EM302.gsf.mb121.gz 41.82MB SAIC Generic Sensor Format (GSF)
0111_20170911_123253_EX1708_MB-EM302.gsf.mb121.gz 28.90MB SAIC Generic Sensor Format (GSF)
0112_20170911_133250_EX1708_MB-EM302.gsf.mb121.gz 10.95MB SAIC Generic Sensor Format (GSF)
0113_20170911_133550_EX1708_MB-EM302.gsf.mb121.gz 10.87MB SAIC Generic Sensor Format (GSF)
0114_20170911_133818_EX1708_MB-EM302.gsf.mb121.gz 23.68MB SAIC Generic Sensor Format (GSF)
0115_20170911_143815_EX1708_MB-EM302.gsf.mb121.gz 22.62MB SAIC Generic Sensor Format (GSF)
0116_20170911_150322_EX1708_MB-EM302.gsf.mb121.gz 14.30MB SAIC Generic Sensor Format (GSF)
0117_20170911_153307_EX1708_MB-EM302.gsf.mb121.gz 9.62MB SAIC Generic Sensor Format (GSF)
0118_20170911_153532_EX1708_MB-EM302.gsf.mb121.gz 9.20MB SAIC Generic Sensor Format (GSF)
0119_20170912_033233_EX1708_MB-EM302.gsf.mb121.gz 13.60MB SAIC Generic Sensor Format (GSF)
0120_20170912_035811_EX1708_MB-EM302.gsf.mb121.gz 13.76MB SAIC Generic Sensor Format (GSF)
0121_20170912_042328_EX1708_MB-EM302.gsf.mb121.gz 15.85MB SAIC Generic Sensor Format (GSF)
0122_20170912_042945_EX1708_MB-EM302.gsf.mb121.gz 31.65MB SAIC Generic Sensor Format (GSF)
0123_20170912_052950_EX1708_MB-EM302.gsf.mb121.gz 37.18MB SAIC Generic Sensor Format (GSF)
0124_20170912_062953_EX1708_MB-EM302.gsf.mb121.gz 37.71MB SAIC Generic Sensor Format (GSF)
0125_20170912_072947_EX1708_MB-EM302.gsf.mb121.gz 33.56MB SAIC Generic Sensor Format (GSF)
0126_20170912_082944_EX1708_MB-EM302.gsf.mb121.gz 20.46MB SAIC Generic Sensor Format (GSF)
0127_20170912_090332_EX1708_MB-EM302.gsf.mb121.gz 14.83MB SAIC Generic Sensor Format (GSF)
0128_20170912_090555_EX1708_MB-EM302.gsf.mb121.gz 18.40MB SAIC Generic Sensor Format (GSF)
0129_20170912_100008_EX1708_MB-EM302.gsf.mb121.gz 21.93MB SAIC Generic Sensor Format (GSF)
0131_20170912_101642_EX1708_MB-EM302.gsf.mb121.gz 28.84MB SAIC Generic Sensor Format (GSF)
0132_20170912_110638_EX1708_MB-EM302.gsf.mb121.gz 28.30MB SAIC Generic Sensor Format (GSF)
0133_20170912_120627_EX1708_MB-EM302.gsf.mb121.gz 24.05MB SAIC Generic Sensor Format (GSF)
0134_20170912_122239_EX1708_MB-EM302.gsf.mb121.gz 30.19MB SAIC Generic Sensor Format (GSF)
0135_20170912_132236_EX1708_MB-EM302.gsf.mb121.gz 26.44MB SAIC Generic Sensor Format (GSF)
0136_20170912_140538_EX1708_MB-EM302.gsf.mb121.gz 22.27MB SAIC Generic Sensor Format (GSF)
0137_20170912_143023_EX1708_MB-EM302.gsf.mb121.gz 19.76MB SAIC Generic Sensor Format (GSF)
0138_20170912_151744_EX1708_MB-EM302.gsf.mb121.gz 13.71MB SAIC Generic Sensor Format (GSF)
0139_20170912_151926_EX1708_MB-EM302.gsf.mb121.gz 20.29MB SAIC Generic Sensor Format (GSF)
0140_20170912_191416_EX1708_MB-EM302.gsf.mb121.gz 32.27MB SAIC Generic Sensor Format (GSF)
0141_20170912_201004_EX1708_MB-EM302.gsf.mb121.gz 26.92MB SAIC Generic Sensor Format (GSF)
0142_20170912_210332_EX1708_MB-EM302.gsf.mb121.gz 19.23MB SAIC Generic Sensor Format (GSF)
0143_20170912_210644_EX1708_MB-EM302.gsf.mb121.gz 25.94MB SAIC Generic Sensor Format (GSF)
0144_20170912_220647_EX1708_MB-EM302.gsf.mb121.gz 19.94MB SAIC Generic Sensor Format (GSF)
0145_20170912_223427_EX1708_MB-EM302.gsf.mb121.gz 14.58MB SAIC Generic Sensor Format (GSF)
0146_20170912_223558_EX1708_MB-EM302.gsf.mb121.gz 21.46MB SAIC Generic Sensor Format (GSF)
0147_20170912_233551_EX1708_MB-EM302.gsf.mb121.gz 16.18MB SAIC Generic Sensor Format (GSF)
0148_20170912_234936_EX1708_MB-EM302.gsf.mb121.gz 16.08MB SAIC Generic Sensor Format (GSF)
0149_20170913_000003_EX1708_MB-EM302.gsf.mb121.gz 28.58MB SAIC Generic Sensor Format (GSF)
0150_20170913_010006_EX1708_MB-EM302.gsf.mb121.gz 35.22MB SAIC Generic Sensor Format (GSF)
0151_20170913_020002_EX1708_MB-EM302.gsf.mb121.gz 32.92MB SAIC Generic Sensor Format (GSF)
0152_20170913_030001_EX1708_MB-EM302.gsf.mb121.gz 27.02MB SAIC Generic Sensor Format (GSF)
0153_20170913_032316_EX1708_MB-EM302.gsf.mb121.gz 29.52MB SAIC Generic Sensor Format (GSF)
0154_20170913_042315_EX1708_MB-EM302.gsf.mb121.gz 34.01MB SAIC Generic Sensor Format (GSF)
0155_20170913_052312_EX1708_MB-EM302.gsf.mb121.gz 34.74MB SAIC Generic Sensor Format (GSF)
0156_20170913_062307_EX1708_MB-EM302.gsf.mb121.gz 35.98MB SAIC Generic Sensor Format (GSF)
0157_20170913_072311_EX1708_MB-EM302.gsf.mb121.gz 29.08MB SAIC Generic Sensor Format (GSF)
0158_20170913_082311_EX1708_MB-EM302.gsf.mb121.gz 20.65MB SAIC Generic Sensor Format (GSF)
0159_20170913_083252_EX1708_MB-EM302.gsf.mb121.gz 26.85MB SAIC Generic Sensor Format (GSF)
0160_20170913_092335_EX1708_MB-EM302.gsf.mb121.gz 36.16MB SAIC Generic Sensor Format (GSF)
0161_20170913_102337_EX1708_MB-EM302.gsf.mb121.gz 26.05MB SAIC Generic Sensor Format (GSF)
0162_20170913_112334_EX1708_MB-EM302.gsf.mb121.gz 17.48MB SAIC Generic Sensor Format (GSF)
0163_20170913_112549_EX1708_MB-EM302.gsf.mb121.gz 14.57MB SAIC Generic Sensor Format (GSF)
0164_20170913_121038_EX1708_MB-EM302.gsf.mb121.gz 16.03MB SAIC Generic Sensor Format (GSF)
0165_20170913_121305_EX1708_MB-EM302.gsf.mb121.gz 16.70MB SAIC Generic Sensor Format (GSF)
0166_20170913_130327_EX1708_MB-EM302.gsf.mb121.gz 17.03MB SAIC Generic Sensor Format (GSF)
0167_20170913_130442_EX1708_MB-EM302.gsf.mb121.gz 19.46MB SAIC Generic Sensor Format (GSF)
0168_20170913_135801_EX1708_MB-EM302.gsf.mb121.gz 15.53MB SAIC Generic Sensor Format (GSF)
0169_20170913_141141_EX1708_MB-EM302.gsf.mb121.gz 12.66MB SAIC Generic Sensor Format (GSF)
0170_20170913_142639_EX1708_MB-EM302.gsf.mb121.gz 14.26MB SAIC Generic Sensor Format (GSF)
0171_20170913_150204_EX1708_MB-EM302.gsf.mb121.gz 15.93MB SAIC Generic Sensor Format (GSF)
0172_20170913_150407_EX1708_MB-EM302.gsf.mb121.gz 29.07MB SAIC Generic Sensor Format (GSF)
0174_20170914_052302_EX1708_MB-EM302.gsf.mb121.gz 21.28MB SAIC Generic Sensor Format (GSF)
0175_20170914_060827_EX1708_MB-EM302.gsf.mb121.gz 25.97MB SAIC Generic Sensor Format (GSF)
0176_20170914_064510_EX1708_MB-EM302.gsf.mb121.gz 30.41MB SAIC Generic Sensor Format (GSF)
0177_20170914_073054_EX1708_MB-EM302.gsf.mb121.gz 35.62MB SAIC Generic Sensor Format (GSF)
0178_20170914_083054_EX1708_MB-EM302.gsf.mb121.gz 37.40MB SAIC Generic Sensor Format (GSF)
0179_20170914_093048_EX1708_MB-EM302.gsf.mb121.gz 29.60MB SAIC Generic Sensor Format (GSF)
0180_20170914_103056_EX1708_MB-EM302.gsf.mb121.gz 20.55MB SAIC Generic Sensor Format (GSF)
0181_20170914_103449_EX1708_MB-EM302.gsf.mb121.gz 25.18MB SAIC Generic Sensor Format (GSF)
0182_20170914_113445_EX1708_MB-EM302.gsf.mb121.gz 21.90MB SAIC Generic Sensor Format (GSF)
0183_20170914_114254_EX1708_MB-EM302.gsf.mb121.gz 29.20MB SAIC Generic Sensor Format (GSF)
0184_20170914_124252_EX1708_MB-EM302.gsf.mb121.gz 37.15MB SAIC Generic Sensor Format (GSF)
0185_20170914_134251_EX1708_MB-EM302.gsf.mb121.gz 41.79MB SAIC Generic Sensor Format (GSF)
0186_20170914_143845_EX1708_MB-EM302.gsf.mb121.gz 48.03MB SAIC Generic Sensor Format (GSF)
0187_20170914_153853_EX1708_MB-EM302.gsf.mb121.gz 21.35MB SAIC Generic Sensor Format (GSF)
0188_20170915_035740_EX1708_MB-EM302.gsf.mb121.gz 30.09MB SAIC Generic Sensor Format (GSF)
0189_20170915_045742_EX1708_MB-EM302.gsf.mb121.gz 38.83MB SAIC Generic Sensor Format (GSF)
0190_20170915_055735_EX1708_MB-EM302.gsf.mb121.gz 32.89MB SAIC Generic Sensor Format (GSF)
0191_20170915_065743_EX1708_MB-EM302.gsf.mb121.gz 25.71MB SAIC Generic Sensor Format (GSF)
0192_20170915_071735_EX1708_MB-EM302.gsf.mb121.gz 31.38MB SAIC Generic Sensor Format (GSF)
0193_20170915_081738_EX1708_MB-EM302.gsf.mb121.gz 37.34MB SAIC Generic Sensor Format (GSF)
0194_20170915_091731_EX1708_MB-EM302.gsf.mb121.gz 38.91MB SAIC Generic Sensor Format (GSF)
0195_20170915_101733_EX1708_MB-EM302.gsf.mb121.gz 29.32MB SAIC Generic Sensor Format (GSF)
0196_20170915_111731_EX1708_MB-EM302.gsf.mb121.gz 13.67MB SAIC Generic Sensor Format (GSF)
0197_20170915_111819_EX1708_MB-EM302.gsf.mb121.gz 17.01MB SAIC Generic Sensor Format (GSF)
0198_20170915_114200_EX1708_MB-EM302.gsf.mb121.gz 31.13MB SAIC Generic Sensor Format (GSF)
0199_20170915_123801_EX1708_MB-EM302.gsf.mb121.gz 36.30MB SAIC Generic Sensor Format (GSF)
0200_20170915_133757_EX1708_MB-EM302.gsf.mb121.gz 26.63MB SAIC Generic Sensor Format (GSF)
0201_20170915_143214_EX1708_MB-EM302.gsf.mb121.gz 18.98MB SAIC Generic Sensor Format (GSF)
0202_20170915_143443_EX1708_MB-EM302.gsf.mb121.gz 22.13MB SAIC Generic Sensor Format (GSF)
0203_20170915_153356_EX1708_MB-EM302.gsf.mb121.gz 16.85MB SAIC Generic Sensor Format (GSF)
0204_20170916_033004_EX1708_MB-EM302.gsf.mb121.gz 28.88MB SAIC Generic Sensor Format (GSF)
0205_20170916_043002_EX1708_MB-EM302.gsf.mb121.gz 37.33MB SAIC Generic Sensor Format (GSF)
0206_20170916_053005_EX1708_MB-EM302.gsf.mb121.gz 37.34MB SAIC Generic Sensor Format (GSF)
0207_20170916_063001_EX1708_MB-EM302.gsf.mb121.gz 37.95MB SAIC Generic Sensor Format (GSF)
0208_20170916_072959_EX1708_MB-EM302.gsf.mb121.gz 37.96MB SAIC Generic Sensor Format (GSF)
0209_20170916_082959_EX1708_MB-EM302.gsf.mb121.gz 37.53MB SAIC Generic Sensor Format (GSF)
0210_20170916_093004_EX1708_MB-EM302.gsf.mb121.gz 37.44MB SAIC Generic Sensor Format (GSF)
0211_20170916_102957_EX1708_MB-EM302.gsf.mb121.gz 31.56MB SAIC Generic Sensor Format (GSF)
0212_20170916_113005_EX1708_MB-EM302.gsf.mb121.gz 17.14MB SAIC Generic Sensor Format (GSF)
0213_20170916_115100_EX1708_MB-EM302.gsf.mb121.gz 13.75MB SAIC Generic Sensor Format (GSF)
0214_20170916_115324_EX1708_MB-EM302.gsf.mb121.gz 23.92MB SAIC Generic Sensor Format (GSF)
0215_20170916_125315_EX1708_MB-EM302.gsf.mb121.gz 14.70MB SAIC Generic Sensor Format (GSF)
0216_20170916_130235_EX1708_MB-EM302.gsf.mb121.gz 14.76MB SAIC Generic Sensor Format (GSF)
0217_20170916_131338_EX1708_MB-EM302.gsf.mb121.gz 25.44MB SAIC Generic Sensor Format (GSF)
0218_20170916_141321_EX1708_MB-EM302.gsf.mb121.gz 14.44MB SAIC Generic Sensor Format (GSF)
0219_20170916_142559_EX1708_MB-EM302.gsf.mb121.gz 4.38MB SAIC Generic Sensor Format (GSF)
0220_20170916_142751_EX1708_MB-EM302.gsf.mb121.gz 4.38MB SAIC Generic Sensor Format (GSF)
0221_20170916_143828_EX1708_MB-EM302.gsf.mb121.gz 10.21MB SAIC Generic Sensor Format (GSF)
0222_20170916_144052_EX1708_MB-EM302.gsf.mb121.gz 21.66MB SAIC Generic Sensor Format (GSF)
0223_20170916_152845_EX1708_MB-EM302.gsf.mb121.gz 19.46MB SAIC Generic Sensor Format (GSF)
0224_20170917_045131_EX1708_MB-EM302.gsf.mb121.gz 30.84MB SAIC Generic Sensor Format (GSF)
0225_20170917_055135_EX1708_MB-EM302.gsf.mb121.gz 31.39MB SAIC Generic Sensor Format (GSF)
0226_20170917_065133_EX1708_MB-EM302.gsf.mb121.gz 16.51MB SAIC Generic Sensor Format (GSF)
0227_20170917_071243_EX1708_MB-EM302.gsf.mb121.gz 13.83MB SAIC Generic Sensor Format (GSF)
0228_20170917_071512_EX1708_MB-EM302.gsf.mb121.gz 29.43MB SAIC Generic Sensor Format (GSF)
0229_20170917_081520_EX1708_MB-EM302.gsf.mb121.gz 37.92MB SAIC Generic Sensor Format (GSF)
0230_20170917_091518_EX1708_MB-EM302.gsf.mb121.gz 37.58MB SAIC Generic Sensor Format (GSF)
0231_20170917_101520_EX1708_MB-EM302.gsf.mb121.gz 31.77MB SAIC Generic Sensor Format (GSF)
0232_20170917_111519_EX1708_MB-EM302.gsf.mb121.gz 26.25MB SAIC Generic Sensor Format (GSF)
0233_20170917_113813_EX1708_MB-EM302.gsf.mb121.gz 29.13MB SAIC Generic Sensor Format (GSF)
0234_20170917_123814_EX1708_MB-EM302.gsf.mb121.gz 11.32MB SAIC Generic Sensor Format (GSF)
0235_20170917_124242_EX1708_MB-EM302.gsf.mb121.gz 11.04MB SAIC Generic Sensor Format (GSF)
0236_20170917_124450_EX1708_MB-EM302.gsf.mb121.gz 28.48MB SAIC Generic Sensor Format (GSF)
0237_20170917_134457_EX1708_MB-EM302.gsf.mb121.gz 29.72MB SAIC Generic Sensor Format (GSF)
0238_20170917_144452_EX1708_MB-EM302.gsf.mb121.gz 13.89MB SAIC Generic Sensor Format (GSF)
0239_20170917_145645_EX1708_MB-EM302.gsf.mb121.gz 12.53MB SAIC Generic Sensor Format (GSF)
0240_20170917_145947_EX1708_MB-EM302.gsf.mb121.gz 28.61MB SAIC Generic Sensor Format (GSF)
0242_20170918_025047_EX1708_MB-EM302.gsf.mb121.gz 17.58MB SAIC Generic Sensor Format (GSF)
0243_20170918_031552_EX1708_MB-EM302.gsf.mb121.gz 29.47MB SAIC Generic Sensor Format (GSF)
0244_20170918_041409_EX1708_MB-EM302.gsf.mb121.gz 13.09MB SAIC Generic Sensor Format (GSF)
0245_20170918_042412_EX1708_MB-EM302.gsf.mb121.gz 12.22MB SAIC Generic Sensor Format (GSF)
0246_20170918_042726_EX1708_MB-EM302.gsf.mb121.gz 28.31MB SAIC Generic Sensor Format (GSF)
0247_20170918_052719_EX1708_MB-EM302.gsf.mb121.gz 36.99MB SAIC Generic Sensor Format (GSF)
0248_20170918_062603_EX1708_MB-EM302.gsf.mb121.gz 34.58MB SAIC Generic Sensor Format (GSF)
0249_20170918_072607_EX1708_MB-EM302.gsf.mb121.gz 22.28MB SAIC Generic Sensor Format (GSF)
0250_20170918_075116_EX1708_MB-EM302.gsf.mb121.gz 14.71MB SAIC Generic Sensor Format (GSF)
0251_20170918_075440_EX1708_MB-EM302.gsf.mb121.gz 22.73MB SAIC Generic Sensor Format (GSF)
0252_20170918_085437_EX1708_MB-EM302.gsf.mb121.gz 26.55MB SAIC Generic Sensor Format (GSF)
0253_20170918_091941_EX1708_MB-EM302.gsf.mb121.gz 31.17MB SAIC Generic Sensor Format (GSF)
0254_20170918_101929_EX1708_MB-EM302.gsf.mb121.gz 36.97MB SAIC Generic Sensor Format (GSF)
0255_20170918_111930_EX1708_MB-EM302.gsf.mb121.gz 36.87MB SAIC Generic Sensor Format (GSF)
0256_20170918_121940_EX1708_MB-EM302.gsf.mb121.gz 34.75MB SAIC Generic Sensor Format (GSF)
0257_20170918_131930_EX1708_MB-EM302.gsf.mb121.gz 23.52MB SAIC Generic Sensor Format (GSF)
0258_20170918_140253_EX1708_MB-EM302.gsf.mb121.gz 17.77MB SAIC Generic Sensor Format (GSF)
0259_20170918_140646_EX1708_MB-EM302.gsf.mb121.gz 20.38MB SAIC Generic Sensor Format (GSF)
0260_20170918_150646_EX1708_MB-EM302.gsf.mb121.gz 13.95MB SAIC Generic Sensor Format (GSF)
0261_20170918_150834_EX1708_MB-EM302.gsf.mb121.gz 8.42MB SAIC Generic Sensor Format (GSF)
0262_20170918_153155_EX1708_MB-EM302.gsf.mb121.gz 7.46MB SAIC Generic Sensor Format (GSF)
0263_20170918_153442_EX1708_MB-EM302.gsf.mb121.gz 9.93MB SAIC Generic Sensor Format (GSF)
0264_20170919_025228_EX1708_MB-EM302.gsf.mb121.gz 36.87MB SAIC Generic Sensor Format (GSF)
0265_20170919_035223_EX1708_MB-EM302.gsf.mb121.gz 37.98MB SAIC Generic Sensor Format (GSF)
0266_20170919_045222_EX1708_MB-EM302.gsf.mb121.gz 36.95MB SAIC Generic Sensor Format (GSF)
0267_20170919_055223_EX1708_MB-EM302.gsf.mb121.gz 36.42MB SAIC Generic Sensor Format (GSF)
0268_20170919_065223_EX1708_MB-EM302.gsf.mb121.gz 36.96MB SAIC Generic Sensor Format (GSF)
0269_20170919_075225_EX1708_MB-EM302.gsf.mb121.gz 37.80MB SAIC Generic Sensor Format (GSF)
0270_20170919_085230_EX1708_MB-EM302.gsf.mb121.gz 53.46MB SAIC Generic Sensor Format (GSF)
0271_20170919_095226_EX1708_MB-EM302.gsf.mb121.gz 40.29MB SAIC Generic Sensor Format (GSF)
0272_20170919_105231_EX1708_MB-EM302.gsf.mb121.gz 38.00MB SAIC Generic Sensor Format (GSF)
0273_20170919_115230_EX1708_MB-EM302.gsf.mb121.gz 37.44MB SAIC Generic Sensor Format (GSF)
0274_20170919_125232_EX1708_MB-EM302.gsf.mb121.gz 40.08MB SAIC Generic Sensor Format (GSF)
0275_20170919_135229_EX1708_MB-EM302.gsf.mb121.gz 38.49MB SAIC Generic Sensor Format (GSF)
0276_20170919_145228_EX1708_MB-EM302.gsf.mb121.gz 31.54MB SAIC Generic Sensor Format (GSF)
0277_20170919_155222_EX1708_MB-EM302.gsf.mb121.gz 20.56MB SAIC Generic Sensor Format (GSF)
0278_20170919_160734_EX1708_MB-EM302.gsf.mb121.gz 17.69MB SAIC Generic Sensor Format (GSF)
0279_20170919_164609_EX1708_MB-EM302.gsf.mb121.gz 15.10MB SAIC Generic Sensor Format (GSF)
0280_20170920_045143_EX1708_MB-EM302.gsf.mb121.gz 10.42MB SAIC Generic Sensor Format (GSF)
0281_20170920_050356_EX1708_MB-EM302.gsf.mb121.gz 14.75MB SAIC Generic Sensor Format (GSF)
0282_20170920_051447_EX1708_MB-EM302.gsf.mb121.gz 22.54MB SAIC Generic Sensor Format (GSF)
0283_20170920_054648_EX1708_MB-EM302.gsf.mb121.gz 33.13MB SAIC Generic Sensor Format (GSF)
0284_20170920_064648_EX1708_MB-EM302.gsf.mb121.gz 37.70MB SAIC Generic Sensor Format (GSF)
0285_20170920_074641_EX1708_MB-EM302.gsf.mb121.gz 31.21MB SAIC Generic Sensor Format (GSF)
0286_20170920_084642_EX1708_MB-EM302.gsf.mb121.gz 11.43MB SAIC Generic Sensor Format (GSF)
0287_20170920_085048_EX1708_MB-EM302.gsf.mb121.gz 11.26MB SAIC Generic Sensor Format (GSF)
0288_20170920_085348_EX1708_MB-EM302.gsf.mb121.gz 29.03MB SAIC Generic Sensor Format (GSF)
0289_20170920_095346_EX1708_MB-EM302.gsf.mb121.gz 29.61MB SAIC Generic Sensor Format (GSF)
0290_20170920_105344_EX1708_MB-EM302.gsf.mb121.gz 15.43MB SAIC Generic Sensor Format (GSF)
0291_20170920_105902_EX1708_MB-EM302.gsf.mb121.gz 18.45MB SAIC Generic Sensor Format (GSF)
0292_20170920_112456_EX1708_MB-EM302.gsf.mb121.gz 32.86MB SAIC Generic Sensor Format (GSF)
0293_20170920_122457_EX1708_MB-EM302.gsf.mb121.gz 31.53MB SAIC Generic Sensor Format (GSF)
0294_20170920_132450_EX1708_MB-EM302.gsf.mb121.gz 19.20MB SAIC Generic Sensor Format (GSF)
0295_20170920_134344_EX1708_MB-EM302.gsf.mb121.gz 14.41MB SAIC Generic Sensor Format (GSF)
0296_20170920_140700_EX1708_MB-EM302.gsf.mb121.gz 21.38MB SAIC Generic Sensor Format (GSF)
0297_20170920_143244_EX1708_MB-EM302.gsf.mb121.gz 26.61MB SAIC Generic Sensor Format (GSF)
0298_20170920_153247_EX1708_MB-EM302.gsf.mb121.gz 17.36MB SAIC Generic Sensor Format (GSF)
0299_20170921_040542_EX1708_MB-EM302.gsf.mb121.gz 21.91MB SAIC Generic Sensor Format (GSF)
0300_20170921_050542_EX1708_MB-EM302.gsf.mb121.gz 24.29MB SAIC Generic Sensor Format (GSF)
0301_20170921_052214_EX1708_MB-EM302.gsf.mb121.gz 24.70MB SAIC Generic Sensor Format (GSF)
0302_20170921_062211_EX1708_MB-EM302.gsf.mb121.gz 19.71MB SAIC Generic Sensor Format (GSF)
0303_20170921_064504_EX1708_MB-EM302.gsf.mb121.gz 19.19MB SAIC Generic Sensor Format (GSF)
0304_20170921_070441_EX1708_MB-EM302.gsf.mb121.gz 30.99MB SAIC Generic Sensor Format (GSF)
0305_20170921_080437_EX1708_MB-EM302.gsf.mb121.gz 28.90MB SAIC Generic Sensor Format (GSF)
0306_20170921_090442_EX1708_MB-EM302.gsf.mb121.gz 14.81MB SAIC Generic Sensor Format (GSF)
0307_20170921_091127_EX1708_MB-EM302.gsf.mb121.gz 16.66MB SAIC Generic Sensor Format (GSF)
0308_20170921_093059_EX1708_MB-EM302.gsf.mb121.gz 30.92MB SAIC Generic Sensor Format (GSF)
0309_20170921_103059_EX1708_MB-EM302.gsf.mb121.gz 30.79MB SAIC Generic Sensor Format (GSF)
0310_20170921_113042_EX1708_MB-EM302.gsf.mb121.gz 24.82MB SAIC Generic Sensor Format (GSF)
0311_20170921_114932_EX1708_MB-EM302.gsf.mb121.gz 30.92MB SAIC Generic Sensor Format (GSF)
0312_20170921_124925_EX1708_MB-EM302.gsf.mb121.gz 34.13MB SAIC Generic Sensor Format (GSF)
0313_20170921_134930_EX1708_MB-EM302.gsf.mb121.gz 21.77MB SAIC Generic Sensor Format (GSF)
0314_20170921_142800_EX1708_MB-EM302.gsf.mb121.gz 14.92MB SAIC Generic Sensor Format (GSF)
0315_20170921_143114_EX1708_MB-EM302.gsf.mb121.gz 22.03MB SAIC Generic Sensor Format (GSF)
0316_20170921_151942_EX1708_MB-EM302.gsf.mb121.gz 21.31MB SAIC Generic Sensor Format (GSF)
0317_20170922_050609_EX1708_MB-EM302.gsf.mb121.gz 17.46MB SAIC Generic Sensor Format (GSF)
0318_20170922_054131_EX1708_MB-EM302.gsf.mb121.gz 22.78MB SAIC Generic Sensor Format (GSF)
0319_20170922_061928_EX1708_MB-EM302.gsf.mb121.gz 24.46MB SAIC Generic Sensor Format (GSF)
0320_20170922_064820_EX1708_MB-EM302.gsf.mb121.gz 32.47MB SAIC Generic Sensor Format (GSF)
0321_20170922_074818_EX1708_MB-EM302.gsf.mb121.gz 38.14MB SAIC Generic Sensor Format (GSF)
0322_20170922_084824_EX1708_MB-EM302.gsf.mb121.gz 38.13MB SAIC Generic Sensor Format (GSF)
0323_20170922_094823_EX1708_MB-EM302.gsf.mb121.gz 30.43MB SAIC Generic Sensor Format (GSF)
0324_20170922_104823_EX1708_MB-EM302.gsf.mb121.gz 19.19MB SAIC Generic Sensor Format (GSF)
0325_20170922_110025_EX1708_MB-EM302.gsf.mb121.gz 13.89MB SAIC Generic Sensor Format (GSF)
0326_20170922_113504_EX1708_MB-EM302.gsf.mb121.gz 15.77MB SAIC Generic Sensor Format (GSF)
0327_20170922_113651_EX1708_MB-EM302.gsf.mb121.gz 27.85MB SAIC Generic Sensor Format (GSF)
0328_20170922_123653_EX1708_MB-EM302.gsf.mb121.gz 37.68MB SAIC Generic Sensor Format (GSF)
0329_20170922_132458_EX1708_MB-EM302.gsf.mb121.gz 30.08MB SAIC Generic Sensor Format (GSF)
0330_20170922_142456_EX1708_MB-EM302.gsf.mb121.gz 12.26MB SAIC Generic Sensor Format (GSF)
0331_20170922_143103_EX1708_MB-EM302.gsf.mb121.gz 9.19MB SAIC Generic Sensor Format (GSF)
0332_20170922_143433_EX1708_MB-EM302.gsf.mb121.gz 15.69MB SAIC Generic Sensor Format (GSF)
0333_20170922_151840_EX1708_MB-EM302.gsf.mb121.gz 14.14MB SAIC Generic Sensor Format (GSF)
0334_20170922_152047_EX1708_MB-EM302.gsf.mb121.gz 14.45MB SAIC Generic Sensor Format (GSF)
0335_20170923_043234_EX1708_MB-EM302.gsf.mb121.gz 1.05MB SAIC Generic Sensor Format (GSF)
0336_20170923_045028_EX1708_MB-EM302.gsf.mb121.gz 30.62MB SAIC Generic Sensor Format (GSF)
0337_20170923_055028_EX1708_MB-EM302.gsf.mb121.gz 38.76MB SAIC Generic Sensor Format (GSF)
0338_20170923_065026_EX1708_MB-EM302.gsf.mb121.gz 37.42MB SAIC Generic Sensor Format (GSF)
0339_20170923_075031_EX1708_MB-EM302.gsf.mb121.gz 28.77MB SAIC Generic Sensor Format (GSF)
0340_20170923_084259_EX1708_MB-EM302.gsf.mb121.gz 23.28MB SAIC Generic Sensor Format (GSF)
0341_20170923_090013_EX1708_MB-EM302.gsf.mb121.gz 23.38MB SAIC Generic Sensor Format (GSF)
0343_20170923_100025_EX1708_MB-EM302.gsf.mb121.gz 29.71MB SAIC Generic Sensor Format (GSF)
0344_20170923_110029_EX1708_MB-EM302.gsf.mb121.gz 31.77MB SAIC Generic Sensor Format (GSF)
0345_20170923_120024_EX1708_MB-EM302.gsf.mb121.gz 15.76MB SAIC Generic Sensor Format (GSF)
0346_20170923_121102_EX1708_MB-EM302.gsf.mb121.gz 16.66MB SAIC Generic Sensor Format (GSF)
0347_20170923_122717_EX1708_MB-EM302.gsf.mb121.gz 31.79MB SAIC Generic Sensor Format (GSF)
0348_20170923_132723_EX1708_MB-EM302.gsf.mb121.gz 26.73MB SAIC Generic Sensor Format (GSF)
0349_20170923_141550_EX1708_MB-EM302.gsf.mb121.gz 16.67MB SAIC Generic Sensor Format (GSF)
0350_20170923_141759_EX1708_MB-EM302.gsf.mb121.gz 17.09MB SAIC Generic Sensor Format (GSF)
0351_20170923_150854_EX1708_MB-EM302.gsf.mb121.gz 15.29MB SAIC Generic Sensor Format (GSF)
0352_20170923_151046_EX1708_MB-EM302.gsf.mb121.gz 16.69MB SAIC Generic Sensor Format (GSF)
0353_20170924_050436_EX1708_MB-EM302.gsf.mb121.gz 14.99MB SAIC Generic Sensor Format (GSF)
0354_20170924_051306_EX1708_MB-EM302.gsf.mb121.gz 35.72MB SAIC Generic Sensor Format (GSF)
0355_20170924_061305_EX1708_MB-EM302.gsf.mb121.gz 38.13MB SAIC Generic Sensor Format (GSF)
0356_20170924_071303_EX1708_MB-EM302.gsf.mb121.gz 37.98MB SAIC Generic Sensor Format (GSF)
0357_20170924_081310_EX1708_MB-EM302.gsf.mb121.gz 36.52MB SAIC Generic Sensor Format (GSF)
0358_20170924_091304_EX1708_MB-EM302.gsf.mb121.gz 33.81MB SAIC Generic Sensor Format (GSF)
0359_20170924_095712_EX1708_MB-EM302.gsf.mb121.gz 28.94MB SAIC Generic Sensor Format (GSF)
0360_20170924_105710_EX1708_MB-EM302.gsf.mb121.gz 14.93MB SAIC Generic Sensor Format (GSF)
0361_20170924_110241_EX1708_MB-EM302.gsf.mb121.gz 17.15MB SAIC Generic Sensor Format (GSF)
0362_20170924_112357_EX1708_MB-EM302.gsf.mb121.gz 31.93MB SAIC Generic Sensor Format (GSF)
0363_20170924_121941_EX1708_MB-EM302.gsf.mb121.gz 29.23MB SAIC Generic Sensor Format (GSF)
0364_20170924_123559_EX1708_MB-EM302.gsf.mb121.gz 39.78MB SAIC Generic Sensor Format (GSF)
0365_20170924_133602_EX1708_MB-EM302.gsf.mb121.gz 14.89MB SAIC Generic Sensor Format (GSF)
0366_20170924_134014_EX1708_MB-EM302.gsf.mb121.gz 18.48MB SAIC Generic Sensor Format (GSF)
0367_20170924_140342_EX1708_MB-EM302.gsf.mb121.gz 25.62MB SAIC Generic Sensor Format (GSF)
0368_20170924_150341_EX1708_MB-EM302.gsf.mb121.gz 21.01MB SAIC Generic Sensor Format (GSF)
0369_20170924_151755_EX1708_MB-EM302.gsf.mb121.gz 20.72MB SAIC Generic Sensor Format (GSF)
0370_20170925_030949_EX1708_MB-EM302.gsf.mb121.gz 44.51MB SAIC Generic Sensor Format (GSF)
0371_20170925_040957_EX1708_MB-EM302.gsf.mb121.gz 39.39MB SAIC Generic Sensor Format (GSF)
0372_20170925_050955_EX1708_MB-EM302.gsf.mb121.gz 38.16MB SAIC Generic Sensor Format (GSF)
0373_20170925_060954_EX1708_MB-EM302.gsf.mb121.gz 38.29MB SAIC Generic Sensor Format (GSF)
0374_20170925_070951_EX1708_MB-EM302.gsf.mb121.gz 38.38MB SAIC Generic Sensor Format (GSF)
0375_20170925_080951_EX1708_MB-EM302.gsf.mb121.gz 38.22MB SAIC Generic Sensor Format (GSF)
0376_20170925_090949_EX1708_MB-EM302.gsf.mb121.gz 38.11MB SAIC Generic Sensor Format (GSF)
0377_20170925_100950_EX1708_MB-EM302.gsf.mb121.gz 30.58MB SAIC Generic Sensor Format (GSF)
0378_20170925_110957_EX1708_MB-EM302.gsf.mb121.gz 23.12MB SAIC Generic Sensor Format (GSF)
0379_20170925_112109_EX1708_MB-EM302.gsf.mb121.gz 37.57MB SAIC Generic Sensor Format (GSF)
0380_20170925_122106_EX1708_MB-EM302.gsf.mb121.gz 17.89MB SAIC Generic Sensor Format (GSF)
0381_20170925_122941_EX1708_MB-EM302.gsf.mb121.gz 21.15MB SAIC Generic Sensor Format (GSF)
0382_20170925_124427_EX1708_MB-EM302.gsf.mb121.gz 39.36MB SAIC Generic Sensor Format (GSF)
0383_20170925_134424_EX1708_MB-EM302.gsf.mb121.gz 17.67MB SAIC Generic Sensor Format (GSF)
0384_20170925_135356_EX1708_MB-EM302.gsf.mb121.gz 18.86MB SAIC Generic Sensor Format (GSF)
0385_20170925_142331_EX1708_MB-EM302.gsf.mb121.gz 23.78MB SAIC Generic Sensor Format (GSF)
0386_20170925_150902_EX1708_MB-EM302.gsf.mb121.gz 19.35MB SAIC Generic Sensor Format (GSF)
0387_20170925_153006_EX1708_MB-EM302.gsf.mb121.gz 8.45MB SAIC Generic Sensor Format (GSF)
0388_20170925_153251_EX1708_MB-EM302.gsf.mb121.gz 16.12MB SAIC Generic Sensor Format (GSF)
0389_20170926_015209_EX1708_MB-EM302.gsf.mb121.gz 34.82MB SAIC Generic Sensor Format (GSF)
0390_20170926_025213_EX1708_MB-EM302.gsf.mb121.gz 38.62MB SAIC Generic Sensor Format (GSF)
0391_20170926_035208_EX1708_MB-EM302.gsf.mb121.gz 39.10MB SAIC Generic Sensor Format (GSF)
0392_20170926_045209_EX1708_MB-EM302.gsf.mb121.gz 39.04MB SAIC Generic Sensor Format (GSF)
0393_20170926_055212_EX1708_MB-EM302.gsf.mb121.gz 38.97MB SAIC Generic Sensor Format (GSF)
0394_20170926_065214_EX1708_MB-EM302.gsf.mb121.gz 38.94MB SAIC Generic Sensor Format (GSF)
0395_20170926_075205_EX1708_MB-EM302.gsf.mb121.gz 39.23MB SAIC Generic Sensor Format (GSF)
0396_20170926_085208_EX1708_MB-EM302.gsf.mb121.gz 39.18MB SAIC Generic Sensor Format (GSF)
0397_20170926_095214_EX1708_MB-EM302.gsf.mb121.gz 39.27MB SAIC Generic Sensor Format (GSF)
0398_20170926_105205_EX1708_MB-EM302.gsf.mb121.gz 39.21MB SAIC Generic Sensor Format (GSF)
0399_20170926_115207_EX1708_MB-EM302.gsf.mb121.gz 35.82MB SAIC Generic Sensor Format (GSF)
0400_20170926_125206_EX1708_MB-EM302.gsf.mb121.gz 32.15MB SAIC Generic Sensor Format (GSF)
0401_20170926_133102_EX1708_MB-EM302.gsf.mb121.gz 34.76MB SAIC Generic Sensor Format (GSF)
0402_20170926_143100_EX1708_MB-EM302.gsf.mb121.gz 35.49MB SAIC Generic Sensor Format (GSF)
0403_20170926_152215_EX1708_MB-EM302.gsf.mb121.gz 40.51MB SAIC Generic Sensor Format (GSF)
0404_20170927_063907_EX1708_MB-EM302.gsf.mb121.gz 32.50MB SAIC Generic Sensor Format (GSF)
0405_20170927_065154_EX1708_MB-EM302.gsf.mb121.gz 47.98MB SAIC Generic Sensor Format (GSF)
0406_20170927_075200_EX1708_MB-EM302.gsf.mb121.gz 39.25MB SAIC Generic Sensor Format (GSF)
0407_20170927_085155_EX1708_MB-EM302.gsf.mb121.gz 38.68MB SAIC Generic Sensor Format (GSF)
0408_20170927_095159_EX1708_MB-EM302.gsf.mb121.gz 32.44MB SAIC Generic Sensor Format (GSF)
0409_20170927_105157_EX1708_MB-EM302.gsf.mb121.gz 26.33MB SAIC Generic Sensor Format (GSF)
0410_20170927_111325_EX1708_MB-EM302.gsf.mb121.gz 34.92MB SAIC Generic Sensor Format (GSF)
0411_20170927_121322_EX1708_MB-EM302.gsf.mb121.gz 39.28MB SAIC Generic Sensor Format (GSF)
0412_20170927_125559_EX1708_MB-EM302.gsf.mb121.gz 18.19MB SAIC Generic Sensor Format (GSF)
0413_20170927_125829_EX1708_MB-EM302.gsf.mb121.gz 70.16MB SAIC Generic Sensor Format (GSF)
0414_20170927_135826_EX1708_MB-EM302.gsf.mb121.gz 126.77MB SAIC Generic Sensor Format (GSF)
0415_20170927_145830_EX1708_MB-EM302.gsf.mb121.gz 30.64MB SAIC Generic Sensor Format (GSF)
0416_20170927_153056_EX1708_MB-EM302.gsf.mb121.gz 17.18MB SAIC Generic Sensor Format (GSF)
0417_20170927_153448_EX1708_MB-EM302.gsf.mb121.gz 46.90MB SAIC Generic Sensor Format (GSF)
0418_20170927_163446_EX1708_MB-EM302.gsf.mb121.gz 56.64MB SAIC Generic Sensor Format (GSF)
0419_20170927_173446_EX1708_MB-EM302.gsf.mb121.gz 53.63MB SAIC Generic Sensor Format (GSF)
0420_20170927_183445_EX1708_MB-EM302.gsf.mb121.gz 39.99MB SAIC Generic Sensor Format (GSF)
0421_20170927_193445_EX1708_MB-EM302.gsf.mb121.gz 39.43MB SAIC Generic Sensor Format (GSF)
0422_20170927_203449_EX1708_MB-EM302.gsf.mb121.gz 39.31MB SAIC Generic Sensor Format (GSF)
0423_20170927_213447_EX1708_MB-EM302.gsf.mb121.gz 42.60MB SAIC Generic Sensor Format (GSF)
0424_20170927_223447_EX1708_MB-EM302.gsf.mb121.gz 55.94MB SAIC Generic Sensor Format (GSF)
0425_20170927_233447_EX1708_MB-EM302.gsf.mb121.gz 49.05MB SAIC Generic Sensor Format (GSF)
0426_20170928_003442_EX1708_MB-EM302.gsf.mb121.gz 17.29MB SAIC Generic Sensor Format (GSF)
0427_20170928_045831_EX1708_MB-EM302.gsf.mb121.gz 51.95MB SAIC Generic Sensor Format (GSF)
0428_20170928_055829_EX1708_MB-EM302.gsf.mb121.gz 58.22MB SAIC Generic Sensor Format (GSF)
0429_20170928_065831_EX1708_MB-EM302.gsf.mb121.gz 85.59MB SAIC Generic Sensor Format (GSF)
0430_20170928_072415_EX1708_MB-EM302.gsf.mb121.gz 148.04MB SAIC Generic Sensor Format (GSF)
0431_20170928_082416_EX1708_MB-EM302.gsf.mb121.gz 26.93MB SAIC Generic Sensor Format (GSF)
0432_20170928_083157_EX1708_MB-EM302.gsf.mb121.gz 31.29MB SAIC Generic Sensor Format (GSF)
0433_20170928_084553_EX1708_MB-EM302.gsf.mb121.gz 141.29MB SAIC Generic Sensor Format (GSF)
0434_20170928_094552_EX1708_MB-EM302.gsf.mb121.gz 40.61MB SAIC Generic Sensor Format (GSF)
0435_20170928_095646_EX1708_MB-EM302.gsf.mb121.gz 43.78MB SAIC Generic Sensor Format (GSF)
0436_20170928_100840_EX1708_MB-EM302.gsf.mb121.gz 146.71MB SAIC Generic Sensor Format (GSF)
0437_20170928_110842_EX1708_MB-EM302.gsf.mb121.gz 26.08MB SAIC Generic Sensor Format (GSF)
0438_20170928_111606_EX1708_MB-EM302.gsf.mb121.gz 26.76MB SAIC Generic Sensor Format (GSF)
0439_20170928_112529_EX1708_MB-EM302.gsf.mb121.gz 141.51MB SAIC Generic Sensor Format (GSF)
0440_20170928_122529_EX1708_MB-EM302.gsf.mb121.gz 39.52MB SAIC Generic Sensor Format (GSF)
0441_20170928_123616_EX1708_MB-EM302.gsf.mb121.gz 18.27MB SAIC Generic Sensor Format (GSF)
0442_20170928_124708_EX1708_MB-EM302.gsf.mb121.gz 17.54MB SAIC Generic Sensor Format (GSF)
0443_20170928_130313_EX1708_MB-EM302.gsf.mb121.gz 11.06MB SAIC Generic Sensor Format (GSF)
0444_20170928_130949_EX1708_MB-EM302.gsf.mb121.gz 14.12MB SAIC Generic Sensor Format (GSF)
0445_20170928_132329_EX1708_MB-EM302.gsf.mb121.gz 6.30MB SAIC Generic Sensor Format (GSF)
0446_20170928_132548_EX1708_MB-EM302.gsf.mb121.gz 40.16MB SAIC Generic Sensor Format (GSF)
0447_20170928_133828_EX1708_MB-EM302.gsf.mb121.gz 48.66MB SAIC Generic Sensor Format (GSF)
0448_20170928_135610_EX1708_MB-EM302.gsf.mb121.gz 51.97MB SAIC Generic Sensor Format (GSF)
0449_20170928_145612_EX1708_MB-EM302.gsf.mb121.gz 22.97MB SAIC Generic Sensor Format (GSF)
0450_20170928_150022_EX1708_MB-EM302.gsf.mb121.gz 65.15MB SAIC Generic Sensor Format (GSF)
0451_20170928_160022_EX1708_MB-EM302.gsf.mb121.gz 19.66MB SAIC Generic Sensor Format (GSF)
0452_20170929_044243_EX1708_MB-EM302.gsf.mb121.gz 126.42MB SAIC Generic Sensor Format (GSF)
0453_20170929_054242_EX1708_MB-EM302.gsf.mb121.gz 170.47MB SAIC Generic Sensor Format (GSF)
0454_20170929_064242_EX1708_MB-EM302.gsf.mb121.gz 99.19MB SAIC Generic Sensor Format (GSF)
0455_20170929_071557_EX1708_MB-EM302.gsf.mb121.gz 52.44MB SAIC Generic Sensor Format (GSF)
0456_20170929_072942_EX1708_MB-EM302.gsf.mb121.gz 164.66MB SAIC Generic Sensor Format (GSF)
0457_20170929_082942_EX1708_MB-EM302.gsf.mb121.gz 79.60MB SAIC Generic Sensor Format (GSF)
0458_20170929_085527_EX1708_MB-EM302.gsf.mb121.gz 54.86MB SAIC Generic Sensor Format (GSF)
0459_20170929_091127_EX1708_MB-EM302.gsf.mb121.gz 164.05MB SAIC Generic Sensor Format (GSF)
0460_20170929_101127_EX1708_MB-EM302.gsf.mb121.gz 67.67MB SAIC Generic Sensor Format (GSF)
0461_20170929_103252_EX1708_MB-EM302.gsf.mb121.gz 56.82MB SAIC Generic Sensor Format (GSF)
0462_20170929_104832_EX1708_MB-EM302.gsf.mb121.gz 168.08MB SAIC Generic Sensor Format (GSF)
0463_20170929_114830_EX1708_MB-EM302.gsf.mb121.gz 54.82MB SAIC Generic Sensor Format (GSF)
0464_20170929_120444_EX1708_MB-EM302.gsf.mb121.gz 43.67MB SAIC Generic Sensor Format (GSF)
0465_20170929_121753_EX1708_MB-EM302.gsf.mb121.gz 165.16MB SAIC Generic Sensor Format (GSF)
0466_20170929_131753_EX1708_MB-EM302.gsf.mb121.gz 73.63MB SAIC Generic Sensor Format (GSF)
0467_20170929_133935_EX1708_MB-EM302.gsf.mb121.gz 64.47MB SAIC Generic Sensor Format (GSF)
0468_20170929_135734_EX1708_MB-EM302.gsf.mb121.gz 166.21MB SAIC Generic Sensor Format (GSF)
0469_20170929_145735_EX1708_MB-EM302.gsf.mb121.gz 36.05MB SAIC Generic Sensor Format (GSF)
0470_20170929_150431_EX1708_MB-EM302.gsf.mb121.gz 146.37MB SAIC Generic Sensor Format (GSF)
0471_20170930_035326_EX1708_MB-EM302.gsf.mb121.gz 162.63MB SAIC Generic Sensor Format (GSF)
0472_20170930_045326_EX1708_MB-EM302.gsf.mb121.gz 33.69MB SAIC Generic Sensor Format (GSF)
0473_20170930_050527_EX1708_MB-EM302.gsf.mb121.gz 33.84MB SAIC Generic Sensor Format (GSF)
0475_20170930_060540_EX1708_MB-EM302.gsf.mb121.gz 19.28MB SAIC Generic Sensor Format (GSF)
0476_20170930_063223_EX1708_MB-EM302.gsf.mb121.gz 34.72MB SAIC Generic Sensor Format (GSF)
0477_20170930_073224_EX1708_MB-EM302.gsf.mb121.gz 35.21MB SAIC Generic Sensor Format (GSF)
0478_20170930_080336_EX1708_MB-EM302.gsf.mb121.gz 37.91MB SAIC Generic Sensor Format (GSF)
0479_20170930_082851_EX1708_MB-EM302.gsf.mb121.gz 52.56MB SAIC Generic Sensor Format (GSF)
0480_20170930_092857_EX1708_MB-EM302.gsf.mb121.gz 29.35MB SAIC Generic Sensor Format (GSF)
0481_20170930_095618_EX1708_MB-EM302.gsf.mb121.gz 25.40MB SAIC Generic Sensor Format (GSF)
0482_20170930_101544_EX1708_MB-EM302.gsf.mb121.gz 45.79MB SAIC Generic Sensor Format (GSF)
0483_20170930_111538_EX1708_MB-EM302.gsf.mb121.gz 40.60MB SAIC Generic Sensor Format (GSF)
0484_20170930_114437_EX1708_MB-EM302.gsf.mb121.gz 31.62MB SAIC Generic Sensor Format (GSF)

Products: 30

Files File Size Description
Dive01_TropicofCancerSeamount.scene.gz 38.05MB Fledermaus Scene file
Dive02_BeachRidge.scene.gz 7.09MB Fledermaus Scene file
Dive03_BeethovenRidge.scene.gz 169.72MB Fledermaus Scene file
Dive04_SibeliusSeamount.scene.gz 10.09MB Fledermaus Scene file
Dive05_GounodSeamount.scene.gz 15.63MB Fledermaus Scene file
Dive07_DebusseySeamount.scene.gz 21.46MB Fledermaus Scene file
Dive08_WagnerSeamount.scene.gz 90.69MB Fledermaus Scene file
Dive09_VerdiSeamount.scene.gz 35.27MB Fledermaus Scene file
Dive10_Shostakovich.scene.gz 8.42MB Fledermaus Scene file
Dive11_Midwater01.scene.gz 3.88MB Fledermaus Scene file
Dive12_MussgorskySeamount.scene.gz 13.52MB Fledermaus Scene file
Dive13_PaganiniSeamount.scene.gz 8.98MB Fledermaus Scene file
Dive14_LisztSeamount.scene.gz 22.39MB Fledermaus Scene file
Dive15_Mozart.scene.gz 10.33MB Fledermaus Scene file
Dive16_Midwater02.scene.gz 13.79MB Fledermaus Scene file
Dive17_RapanoRidge.scene.gz 19.94MB Fledermaus Scene file
Dive18_SchumannSeamount.scene.gz 27.84MB Fledermaus Scene file
Dive19_MendelssohnSeamount.scene.gz 9.44MB Fledermaus Scene file
Dive20_MiddleBank.scene.gz 51.44MB Fledermaus Scene file
Dive21_CaimanAnomally.scene.gz 4.02MB Fledermaus Scene file
EX1708_MB_FNL_North_75m_WGS84.asc.gz 475.80MB ESRI Arc ASCII
EX1708_MB_FNL_North_75m_WGS84.kmz.gz 13.53MB Compressed Keyhole Markup Language file
EX1708_MB_FNL_North_75m_WGS84.sd.gz 393.24MB Fledermaus surface
EX1708_MB_FNL_North_75m_WGS84.tif.gz 17.50MB GeoTIFF survey image
EX1708_MB_FNL_North_75m_WGS84.xyz.gz 145.29MB xyz grid file provided by the originator
EX1708_MB_FNL_South_75m_WGS84.asc.gz 270.97MB ESRI Arc ASCII
EX1708_MB_FNL_South_75m_WGS84.kmz.gz 7.88MB Compressed Keyhole Markup Language file
EX1708_MB_FNL_South_75m_WGS84.sd.gz 228.14MB Fledermaus surface
EX1708_MB_FNL_South_75m_WGS84.tif.gz 10.25MB GeoTIFF survey image
EX1708_MB_FNL_South_75m_WGS84.xyz.gz 87.39MB xyz grid file provided by the originator

Metadata Files: 7

Files File Size Description
EX1708_COLLECTION_UNRESOLVED.xml 13.7KB XML metadata file
EX1708_Multibeam_COLLECTION_UNRESOLVED.xml 21.3KB XML metadata file
EX1708_Profile_COLLECTION_UNRESOLVED.xml 15.3KB XML metadata file
mb_bag_info.tar.gz 57.8KB Additional cruise information
v1_file_metadata.tar.gz 141.3KB File level metadata
wcp_bag_info.tar.gz 7.1KB Additional cruise information
v2_file_metadata.tar.gz 155.8KB File level metadata

Ancillary Files: 5

Files File Size Description
asvp.tar.gz 247.0KB Sound Speed Profiles (SSP or SVP)
cpctd.tar.gz 140.95MB Conductivity, Temperature, Depth (CTD) data
rovctd.tar.gz 142.34MB Conductivity, Temperature, Depth (CTD) data
support.tar.gz 10.85MB Supporting data
xbt.tar.gz 0.84MB Expendable Bathythermograph (XBT) data

Water Column Sonar Data

Water Column Sonar Data Available: WCSD Map Viewer